Observation data for Umbarger on 11/09/2019      Previous  Date       Current Mesonet Observations  Soil Data  Daily Summary Page  Observations in Plain Language
KUM1 090600Z 25006KT 01/01 A3028 RMK A01 T00120009  RH  098%=      5-min Rain = 0
KUM1 090601Z 25006KT 01/01 A3028 RMK A01 T00130010  RH  098%=      5-min Rain = 0
KUM1 090602Z 25007KT 01/01 A3028 RMK A01 T00140011  RH  098%=      5-min Rain = 0
KUM1 090603Z 24007KT 01/01 A3027 RMK A01 T00140011  RH  098%=      5-min Rain = 0
KUM1 090604Z 25007KT 01/01 A3027 RMK A01 T00140011  RH  098%=      5-min Rain = 0
KUM1 090605Z 24007KT 02/01 A3027 RMK A01 T00150012  RH  098%=      5-min Rain = 0
KUM1 090606Z 24007KT 02/01 A3027 RMK A01 T00160013  RH  098%=      5-min Rain = 0
KUM1 090607Z 24007KT 02/01 A3027 RMK A01 T00170014  RH  098%=      5-min Rain = 0
KUM1 090608Z 25007KT 02/02 A3027 RMK A01 T00180015  RH  098%=      5-min Rain = 0
KUM1 090609Z 24007KT 02/01 A3027 RMK A01 T00170014  RH  098%=      5-min Rain = 0
KUM1 090610Z 24007KT 02/01 A3027 RMK A01 T00170014  RH  098%=      5-min Rain = 0
KUM1 090611Z 24007KT 02/02 A3027 RMK A01 T00180015  RH  098%=      5-min Rain = 0
KUM1 090612Z 25006KT 02/01 A3027 RMK A01 T00180014  RH  098%=      5-min Rain = 0
KUM1 090613Z 25007KT 02/01 A3027 RMK A01 T00170013  RH  097%=      5-min Rain = 0
KUM1 090614Z 24006KT 02/01 A3027 RMK A01 T00160012  RH  097%=      5-min Rain = 0
KUM1 090615Z 24007KT 02/01 A3027 RMK A01 T00150011  RH  097%=      5-min Rain = 0
KUM1 090616Z 24007KT 02/01 A3027 RMK A01 T00150010  RH  097%=      5-min Rain = 0
KUM1 090617Z 24008KT 02/01 A3027 RMK A01 T00150011  RH  097%=      5-min Rain = 0
KUM1 090618Z 24007KT 02/01 A3027 RMK A01 T00150011  RH  097%=      5-min Rain = 0
KUM1 090619Z 24008KT 02/01 A3027 RMK A01 T00150011  RH  097%=      5-min Rain = 0
KUM1 090620Z 24007KT 02/01 A3027 RMK A01 T00150011  RH  097%=      5-min Rain = 0
KUM1 090621Z 24007KT 02/01 A3027 RMK A01 T00150011  RH  097%=      5-min Rain = 0
KUM1 090622Z 24007KT 02/01 A3027 RMK A01 T00150011  RH  097%=      5-min Rain = 0
KUM1 090623Z 24007KT 02/01 A3027 RMK A01 T00150011  RH  097%=      5-min Rain = 0
KUM1 090624Z 24007KT 02/01 A3027 RMK A01 T00160011  RH  097%=      5-min Rain = 0
KUM1 090625Z 25007KT 02/01 A3027 RMK A01 T00160012  RH  097%=      5-min Rain = 0
KUM1 090626Z 24007KT 02/01 A3027 RMK A01 T00170012  RH  097%=      5-min Rain = 0
KUM1 090627Z 25007KT 02/01 A3027 RMK A01 T00160012  RH  097%=      5-min Rain = 0
KUM1 090628Z 25008KT 02/01 A3027 RMK A01 T00160012  RH  097%=      5-min Rain = 0
KUM1 090629Z 24007KT 02/01 A3027 RMK A01 T00160011  RH  097%=      5-min Rain = 0
KUM1 090630Z 24007KT 02/01 A3027 RMK A01 T00150010  RH  097%=      5-min Rain = 0
KUM1 090631Z 24007KT 02/01 A3027 RMK A01 T00150010  RH  097%=      5-min Rain = 0
KUM1 090632Z 24007KT 02/01 A3027 RMK A01 T00150011  RH  097%=      5-min Rain = 0
KUM1 090633Z 24007KT 02/01 A3027 RMK A01 T00150011  RH  097%=      5-min Rain = 0
KUM1 090634Z 24007KT 02/01 A3027 RMK A01 T00160011  RH  097%=      5-min Rain = 0
KUM1 090635Z 24007KT 02/01 A3027 RMK A01 T00160011  RH  097%=      5-min Rain = 0
KUM1 090636Z 25007KT 02/01 A3027 RMK A01 T00160011  RH  097%=      5-min Rain = 0
KUM1 090637Z 25007KT 02/01 A3027 RMK A01 T00160011  RH  097%=      5-min Rain = 0
KUM1 090638Z 25007KT 02/01 A3027 RMK A01 T00160011  RH  097%=      5-min Rain = 0
KUM1 090639Z 25007KT 02/01 A3027 RMK A01 T00150010  RH  096%=      5-min Rain = 0
KUM1 090640Z 25008KT 01/01 A3027 RMK A01 T00140009  RH  096%=      5-min Rain = 0
KUM1 090641Z 24008KT 01/01 A3027 RMK A01 T00140009  RH  096%=      5-min Rain = 0
KUM1 090642Z 24007KT 01/01 A3027 RMK A01 T00140009  RH  096%=      5-min Rain = 0
KUM1 090643Z 24007KT 01/01 A3027 RMK A01 T00140009  RH  096%=      5-min Rain = 0
KUM1 090644Z 23008KT 01/01 A3027 RMK A01 T00140009  RH  096%=      5-min Rain = 0
KUM1 090645Z 23007KT 01/01 A3027 RMK A01 T00140009  RH  096%=      5-min Rain = 0
KUM1 090646Z 23007KT 01/01 A3027 RMK A01 T00130008  RH  096%=      5-min Rain = 0
KUM1 090647Z 23008KT 01/01 A3027 RMK A01 T00120007  RH  096%=      5-min Rain = 0
KUM1 090648Z 23008KT 01/01 A3027 RMK A01 T00130007  RH  096%=      5-min Rain = 0
KUM1 090649Z 23007KT 01/01 A3027 RMK A01 T00120007  RH  096%=      5-min Rain = 0
KUM1 090650Z 22007KT 01/01 A3027 RMK A01 T00120007  RH  096%=      5-min Rain = 0
KUM1 090651Z 23008KT 01/01 A3027 RMK A01 T00120006  RH  096%=      5-min Rain = 0
KUM1 090652Z 23007KT 01/01 A3027 RMK A01 T00120007  RH  096%=      5-min Rain = 0
KUM1 090653Z 23008KT 01/01 A3027 RMK A01 T00120007  RH  096%=      5-min Rain = 0
KUM1 090654Z 22008KT 01/01 A3027 RMK A01 T00120007  RH  096%=      5-min Rain = 0
KUM1 090655Z 23007KT 01/01 A3027 RMK A01 T00120007  RH  096%=      5-min Rain = 0
KUM1 090656Z 23008KT 01/01 A3027 RMK A01 T00120006  RH  096%=      5-min Rain = 0
KUM1 090657Z 23008KT 01/01 A3027 RMK A01 T00110006  RH  096%=      5-min Rain = 0
KUM1 090658Z 23008KT 01/01 A3027 RMK A01 T00120007  RH  096%=      5-min Rain = 0
KUM1 090659Z 23008KT 01/01 A3027 RMK A01 T00120007  RH  096%=      5-min Rain = 0
KUM1 090700Z 23007KT 01/01 A3027 RMK A01 T00120007  RH  096%=      5-min Rain = 0
KUM1 090701Z 23007KT 01/01 A3027 RMK A01 T00130008  RH  096%=      5-min Rain = 0
KUM1 090702Z 23008KT 01/01 A3027 RMK A01 T00130008  RH  097%=      5-min Rain = 0
KUM1 090703Z 23008KT 01/01 A3027 RMK A01 T00140009  RH  097%=      5-min Rain = 0
KUM1 090704Z 23009KT 01/01 A3027 RMK A01 T00140009  RH  097%=      5-min Rain = 0
KUM1 090705Z 23008KT 01/01 A3027 RMK A01 T00140009  RH  097%=      5-min Rain = 0
KUM1 090706Z 23008KT 02/01 A3027 RMK A01 T00150010  RH  097%=      5-min Rain = 0
KUM1 090707Z 23008KT 02/01 A3027 RMK A01 T00160011  RH  097%=      5-min Rain = 0
KUM1 090708Z 23008KT 02/01 A3027 RMK A01 T00160011  RH  097%=      5-min Rain = 0
KUM1 090709Z 23007KT 02/01 A3027 RMK A01 T00160010  RH  096%=      5-min Rain = 0
KUM1 090710Z 23008KT 02/01 A3027 RMK A01 T00160010  RH  096%=      5-min Rain = 0
KUM1 090711Z 23008KT 02/01 A3027 RMK A01 T00160010  RH  096%=      5-min Rain = 0
KUM1 090712Z 23007KT 02/01 A3027 RMK A01 T00160011  RH  096%=      5-min Rain = 0
KUM1 090713Z 24007KT 02/01 A3027 RMK A01 T00160011  RH  096%=      5-min Rain = 0
KUM1 090714Z 24008KT 02/01 A3027 RMK A01 T00160011  RH  096%=      5-min Rain = 0
KUM1 090715Z 24008KT 02/01 A3027 RMK A01 T00170012  RH  096%=      5-min Rain = 0
KUM1 090718Z 24006KT 02/01 A3027 RMK A01 T00170011  RH  096%=      5-min Rain = 0
KUM1 090719Z 25006KT 02/01 A3027 RMK A01 T00160010  RH  096%=      5-min Rain = 0
KUM1 090720Z 24007KT 02/01 A3027 RMK A01 T00150009  RH  096%=      5-min Rain = 0
KUM1 090721Z 24007KT 01/01 A3027 RMK A01 T00140008  RH  095%=      5-min Rain = 0
KUM1 090722Z 24007KT 01/01 A3027 RMK A01 T00130007  RH  095%=      5-min Rain = 0
KUM1 090723Z 25007KT 01/01 A3027 RMK A01 T00120006  RH  095%=      5-min Rain = 0
KUM1 090724Z 25007KT 01/00 A3027 RMK A01 T00110004  RH  095%=      5-min Rain = 0
KUM1 090725Z 24008KT 01/00 A3027 RMK A01 T00100003  RH  095%=      5-min Rain = 0
KUM1 090726Z 24008KT 01/00 A3027 RMK A01 T00090003  RH  095%=      5-min Rain = 0
KUM1 090727Z 24008KT 01/00 A3027 RMK A01 T00090003  RH  096%=      5-min Rain = 0
KUM1 090728Z 24007KT 01/00 A3027 RMK A01 T00090003  RH  096%=      5-min Rain = 0
KUM1 090729Z 24007KT 01/00 A3027 RMK A01 T00090004  RH  096%=      5-min Rain = 0
KUM1 090730Z 24006KT 01/00 A3027 RMK A01 T00090004  RH  096%=      5-min Rain = 0
KUM1 090731Z 24006KT 01/00 A3027 RMK A01 T00090004  RH  096%=      5-min Rain = 0
KUM1 090732Z 24007KT 01/00 A3027 RMK A01 T00090004  RH  096%=      5-min Rain = 0
KUM1 090733Z 25007KT 01/00 A3027 RMK A01 T00090004  RH  096%=      5-min Rain = 0
KUM1 090734Z 25007KT 01/00 A3027 RMK A01 T00090003  RH  096%=      5-min Rain = 0
KUM1 090735Z 25007KT 01/00 A3027 RMK A01 T00080002  RH  096%=      5-min Rain = 0
KUM1 090736Z 25007KT 01/00 A3027 RMK A01 T00070001  RH  096%=      5-min Rain = 0
KUM1 090737Z 25007KT 01/00 A3027 RMK A01 T00060000  RH  096%=      5-min Rain = 0
KUM1 090738Z 25007KT 01/00 A3027 RMK A01 T000500-0  RH  096%=      5-min Rain = 0
KUM1 090739Z 25007KT 01/M00 A3027 RMK A01 T00051001  RH  096%=      5-min Rain = 0
KUM1 090740Z 25007KT 01/M00 A3027 RMK A01 T00051001  RH  096%=      5-min Rain = 0
KUM1 090741Z 24007KT 00/M00 A3027 RMK A01 T00041001  RH  096%=      5-min Rain = 0
KUM1 090742Z 25006KT 00/M00 A3027 RMK A01 T00041001  RH  096%=      5-min Rain = 0
KUM1 090743Z 24007KT 00/M00 A3027 RMK A01 T00041001  RH  097%=      5-min Rain = 0
KUM1 090744Z 24007KT 01/00 A3027 RMK A01 T000500-0  RH  097%=      5-min Rain = 0
KUM1 090745Z 24007KT 01/00 A3027 RMK A01 T00050000  RH  097%=      5-min Rain = 0
KUM1 090746Z 24007KT 01/00 A3027 RMK A01 T00050001  RH  097%=      5-min Rain = 0
KUM1 090747Z 24007KT 01/00 A3027 RMK A01 T00060001  RH  097%=      5-min Rain = 0
KUM1 090748Z 24008KT 01/00 A3027 RMK A01 T00060001  RH  097%=      5-min Rain = 0
KUM1 090749Z 24007KT 01/00 A3027 RMK A01 T00060001  RH  097%=      5-min Rain = 0
KUM1 090750Z 24007KT 01/00 A3027 RMK A01 T00060001  RH  097%=      5-min Rain = 0
KUM1 090751Z 23007KT 01/00 A3027 RMK A01 T00050001  RH  097%=      5-min Rain = 0
KUM1 090752Z 24007KT 01/00 A3027 RMK A01 T00050000  RH  097%=      5-min Rain = 0
KUM1 090753Z 24007KT 01/00 A3027 RMK A01 T00050000  RH  097%=      5-min Rain = 0
KUM1 090754Z 24007KT 01/00 A3027 RMK A01 T00060001  RH  097%=      5-min Rain = 0
KUM1 090755Z 24007KT 01/00 A3027 RMK A01 T00060002  RH  097%=      5-min Rain = 0
KUM1 090756Z 24006KT 01/00 A3027 RMK A01 T00060002  RH  097%=      5-min Rain = 0
KUM1 090757Z 23006KT 01/00 A3027 RMK A01 T00060002  RH  097%=      5-min Rain = 0
KUM1 090758Z 23007KT 01/00 A3027 RMK A01 T00060001  RH  097%=      5-min Rain = 0
KUM1 090759Z 24007KT 01/00 A3027 RMK A01 T00060001  RH  097%=      5-min Rain = 0
KUM1 090800Z 24007KT 01/00 A3027 RMK A01 T00060002  RH  097%=      5-min Rain = 0
KUM1 090801Z 24008KT 01/00 A3027 RMK A01 T00060002  RH  097%=      5-min Rain = 0
KUM1 090802Z 24008KT 01/00 A3027 RMK A01 T00060002  RH  097%=      5-min Rain = 0
KUM1 090803Z 24007KT 01/00 A3027 RMK A01 T00070003  RH  097%=      5-min Rain = 0
KUM1 090804Z 24007KT 01/00 A3027 RMK A01 T00070003  RH  097%=      5-min Rain = 0
KUM1 090805Z 24007KT 01/00 A3027 RMK A01 T00070003  RH  097%=      5-min Rain = 0
KUM1 090806Z 24007KT 01/00 A3027 RMK A01 T00070003  RH  097%=      5-min Rain = 0
KUM1 090807Z 24006KT 01/00 A3027 RMK A01 T00070003  RH  097%=      5-min Rain = 0
KUM1 090808Z 24007KT 01/00 A3027 RMK A01 T00070003  RH  097%=      5-min Rain = 0
KUM1 090809Z 24007KT 01/00 A3027 RMK A01 T00070002  RH  097%=      5-min Rain = 0
KUM1 090810Z 24008KT 01/00 A3027 RMK A01 T00060002  RH  097%=      5-min Rain = 0
KUM1 090811Z 24008KT 01/00 A3027 RMK A01 T00060001  RH  097%=      5-min Rain = 0
KUM1 090812Z 24007KT 01/00 A3027 RMK A01 T00060001  RH  097%=      5-min Rain = 0
KUM1 090813Z 24007KT 01/00 A3027 RMK A01 T00050000  RH  097%=      5-min Rain = 0
KUM1 090814Z 24007KT 00/M00 A3027 RMK A01 T00041001  RH  097%=      5-min Rain = 0
KUM1 090815Z 24007KT 00/M00 A3026 RMK A01 T00031002  RH  097%=      5-min Rain = 0
KUM1 090816Z 24007KT 00/M00 A3026 RMK A01 T00031001  RH  097%=      5-min Rain = 0
KUM1 090817Z 24008KT 00/M00 A3026 RMK A01 T00031001  RH  097%=      5-min Rain = 0
KUM1 090818Z 24007KT 00/M00 A3026 RMK A01 T00031001  RH  097%=      5-min Rain = 0
KUM1 090819Z 24008KT 00/M00 A3026 RMK A01 T00031001  RH  097%=      5-min Rain = 0
KUM1 090820Z 24007KT 00/M00 A3026 RMK A01 T00031001  RH  097%=      5-min Rain = 0
KUM1 090821Z 24007KT 00/00 A3026 RMK A01 T000400-0  RH  097%=      5-min Rain = 0
KUM1 090822Z 24008KT 00/00 A3026 RMK A01 T000400-0  RH  097%=      5-min Rain = 0
KUM1 090823Z 24007KT 00/00 A3026 RMK A01 T000400-0  RH  097%=      5-min Rain = 0
KUM1 090824Z 24008KT 00/00 A3026 RMK A01 T000400-0  RH  097%=      5-min Rain = 0
KUM1 090825Z 24007KT 00/00 A3026 RMK A01 T000400-0  RH  097%=      5-min Rain = 0
KUM1 090826Z 24007KT 00/00 A3026 RMK A01 T00040000  RH  097%=      5-min Rain = 0
KUM1 090827Z 24007KT 00/00 A3026 RMK A01 T000400-0  RH  097%=      5-min Rain = 0
KUM1 090828Z 24007KT 00/M00 A3026 RMK A01 T00031001  RH  097%=      5-min Rain = 0
KUM1 090829Z 24007KT 00/M00 A3026 RMK A01 T00031001  RH  097%=      5-min Rain = 0
KUM1 090830Z 24007KT 00/M00 A3026 RMK A01 T00031001  RH  097%=      5-min Rain = 0
KUM1 090831Z 23007KT 00/M00 A3026 RMK A01 T00021001  RH  097%=      5-min Rain = 0
KUM1 090832Z 24008KT 00/M00 A3026 RMK A01 T00021001  RH  097%=      5-min Rain = 0
KUM1 090833Z 24008KT 00/M00 A3026 RMK A01 T00021002  RH  097%=      5-min Rain = 0
KUM1 090834Z 24008KT 00/M00 A3026 RMK A01 T00021002  RH  097%=      5-min Rain = 0
KUM1 090835Z 24008KT 00/M00 A3026 RMK A01 T00021001  RH  098%=      5-min Rain = 0
KUM1 090836Z 24008KT 00/M00 A3026 RMK A01 T00031001  RH  098%=      5-min Rain = 0
KUM1 090837Z 24008KT 00/00 A3026 RMK A01 T000300-0  RH  098%=      5-min Rain = 0
KUM1 090838Z 24008KT 00/00 A3026 RMK A01 T000300-0  RH  098%=      5-min Rain = 0
KUM1 090839Z 24007KT 00/00 A3026 RMK A01 T00030000  RH  098%=      5-min Rain = 0
KUM1 090840Z 24008KT 00/00 A3026 RMK A01 T00030000  RH  098%=      5-min Rain = 0
KUM1 090841Z 24007KT 00/00 A3026 RMK A01 T000300-0  RH  098%=      5-min Rain = 0
KUM1 090842Z 24007KT 00/00 A3026 RMK A01 T00030000  RH  098%=      5-min Rain = 0
KUM1 090843Z 24007KT 00/00 A3026 RMK A01 T000300-0  RH  098%=      5-min Rain = 0
KUM1 090844Z 24007KT 00/00 A3026 RMK A01 T000300-0  RH  098%=      5-min Rain = 0
KUM1 090845Z 24007KT 00/M00 A3026 RMK A01 T00031001  RH  098%=      5-min Rain = 0
KUM1 090846Z 25007KT 00/M00 A3026 RMK A01 T00031001  RH  098%=      5-min Rain = 0
KUM1 090847Z 25006KT 00/M00 A3026 RMK A01 T00021001  RH  098%=      5-min Rain = 0
KUM1 090848Z 25006KT 00/M00 A3026 RMK A01 T00011002  RH  097%=      5-min Rain = 0
KUM1 090849Z 25006KT 00/00 A3026 RMK A01 T00-000-4  RH  097%=      5-min Rain = 0
KUM1 090850Z 25006KT 00/00 A3026 RMK A01 T00-000-4  RH  097%=      5-min Rain = 0
KUM1 090851Z 25007KT M00/M00 A3026 RMK A01 T10011004  RH  097%=      5-min Rain = 0
KUM1 090852Z 25006KT M00/M01 A3026 RMK A01 T10011005  RH  097%=      5-min Rain = 0
KUM1 090853Z 25006KT M00/M00 A3026 RMK A01 T10011004  RH  097%=      5-min Rain = 0
KUM1 090854Z 25006KT M00/M01 A3026 RMK A01 T10011005  RH  097%=      5-min Rain = 0
KUM1 090855Z 26006KT M00/M01 A3026 RMK A01 T10011005  RH  097%=      5-min Rain = 0
KUM1 090856Z 26006KT M00/M01 A3026 RMK A01 T10021006  RH  097%=      5-min Rain = 0
KUM1 090857Z 25006KT M00/M01 A3026 RMK A01 T10031006  RH  097%=      5-min Rain = 0
KUM1 090858Z 25006KT M00/M01 A3026 RMK A01 T10031007  RH  097%=      5-min Rain = 0
KUM1 090859Z 25007KT M00/M01 A3026 RMK A01 T10031007  RH  097%=      5-min Rain = 0
KUM1 090900Z 24006KT M00/M01 A3026 RMK A01 T10031007  RH  098%=      5-min Rain = 0
KUM1 090901Z 24007KT M00/M01 A3025 RMK A01 T10031007  RH  098%=      5-min Rain = 0
KUM1 090902Z 24007KT M00/M01 A3025 RMK A01 T10031006  RH  098%=      5-min Rain = 0
KUM1 090903Z 25007KT M00/M01 A3025 RMK A01 T10021005  RH  098%=      5-min Rain = 0
KUM1 090904Z 25007KT M00/M01 A3025 RMK A01 T10021005  RH  098%=      5-min Rain = 0
KUM1 090905Z 25007KT M00/M00 A3025 RMK A01 T10011004  RH  098%=      5-min Rain = 0
KUM1 090906Z 24007KT M00/M00 A3025 RMK A01 T10011004  RH  098%=      5-min Rain = 0
KUM1 090907Z 25007KT M00/M00 A3025 RMK A01 T10011004  RH  098%=      5-min Rain = 0
KUM1 090908Z 24007KT M00/M00 A3025 RMK A01 T10011004  RH  098%=      5-min Rain = 0
KUM1 090909Z 24007KT M00/M00 A3025 RMK A01 T10011004  RH  098%=      5-min Rain = 0
KUM1 090910Z 24007KT M00/M00 A3025 RMK A01 T10011004  RH  098%=      5-min Rain = 0
KUM1 090911Z 24007KT M00/M01 A3025 RMK A01 T10011005  RH  098%=      5-min Rain = 0
KUM1 090912Z 25007KT M00/M01 A3025 RMK A01 T10021005  RH  098%=      5-min Rain = 0
KUM1 090913Z 24007KT M00/M01 A3025 RMK A01 T10021006  RH  098%=      5-min Rain = 0
KUM1 090914Z 25007KT M00/M01 A3025 RMK A01 T10021006  RH  098%=      5-min Rain = 0
KUM1 090915Z 25008KT M00/M01 A3025 RMK A01 T10031006  RH  098%=      5-min Rain = 0
KUM1 090916Z 25008KT M00/M01 A3025 RMK A01 T10031006  RH  098%=      5-min Rain = 0
KUM1 090917Z 25008KT M00/M01 A3025 RMK A01 T10031006  RH  098%=      5-min Rain = 0
KUM1 090918Z 25008KT M00/M01 A3025 RMK A01 T10031006  RH  098%=      5-min Rain = 0
KUM1 090919Z 25008KT M00/M01 A3025 RMK A01 T10031007  RH  098%=      5-min Rain = 0
KUM1 090920Z 25008KT M00/M01 A3024 RMK A01 T10041007  RH  098%=      5-min Rain = 0
KUM1 090921Z 25008KT M00/M01 A3024 RMK A01 T10041007  RH  098%=      5-min Rain = 0
KUM1 090922Z 25008KT M00/M01 A3024 RMK A01 T10041007  RH  098%=      5-min Rain = 0
KUM1 090923Z 25008KT M00/M01 A3024 RMK A01 T10031006  RH  098%=      5-min Rain = 0
KUM1 090924Z 25008KT M00/M01 A3024 RMK A01 T10031006  RH  098%=      5-min Rain = 0
KUM1 090925Z 25008KT M00/M01 A3024 RMK A01 T10021006  RH  098%=      5-min Rain = 0
KUM1 090926Z 25008KT M00/M01 A3024 RMK A01 T10021005  RH  098%=      5-min Rain = 0
KUM1 090927Z 25008KT M00/M00 A3024 RMK A01 T10011004  RH  098%=      5-min Rain = 0
KUM1 090928Z 25008KT M00/M00 A3024 RMK A01 T10011004  RH  098%=      5-min Rain = 0
KUM1 090929Z 25008KT M00/M00 A3024 RMK A01 T10011003  RH  098%=      5-min Rain = 0
KUM1 090930Z 25008KT 00/00 A3024 RMK A01 T00-000-3  RH  098%=      5-min Rain = 0
KUM1 090931Z 25008KT M00/M00 A3024 RMK A01 T10011004  RH  098%=      5-min Rain = 0
KUM1 090932Z 25008KT M00/M01 A3024 RMK A01 T10011005  RH  098%=      5-min Rain = 0
KUM1 090933Z 24008KT M00/M01 A3024 RMK A01 T10021005  RH  098%=      5-min Rain = 0
KUM1 090934Z 25007KT M00/M01 A3024 RMK A01 T10021005  RH  098%=      5-min Rain = 0
KUM1 090935Z 24007KT M00/M00 A3024 RMK A01 T10011004  RH  098%=      5-min Rain = 0
KUM1 090936Z 24007KT M00/M00 A3024 RMK A01 T10011004  RH  098%=      5-min Rain = 0
KUM1 090937Z 25007KT M00/M00 A3024 RMK A01 T10011004  RH  098%=      5-min Rain = 0
KUM1 090938Z 24006KT M00/M00 A3024 RMK A01 T10011004  RH  098%=      5-min Rain = 0
KUM1 090939Z 24007KT M00/M01 A3024 RMK A01 T10011005  RH  098%=      5-min Rain = 0
KUM1 090940Z 24008KT M00/M00 A3024 RMK A01 T10011004  RH  098%=      5-min Rain = 0
KUM1 090941Z 24008KT M00/M01 A3024 RMK A01 T10011005  RH  098%=      5-min Rain = 0
KUM1 090942Z 24008KT M00/M00 A3024 RMK A01 T10011004  RH  098%=      5-min Rain = 0
KUM1 090943Z 24009KT M00/M00 A3024 RMK A01 T10011004  RH  098%=      5-min Rain = 0
KUM1 090944Z 24009KT 00/00 A3024 RMK A01 T00-000-3  RH  098%=      5-min Rain = 0
KUM1 090945Z 24007KT 00/00 A3024 RMK A01 T000000-3  RH  098%=      5-min Rain = 0
KUM1 090946Z 25008KT 00/00 A3023 RMK A01 T000000-3  RH  098%=      5-min Rain = 0
KUM1 090947Z 24007KT 00/M00 A3023 RMK A01 T00011003  RH  098%=      5-min Rain = 0
KUM1 090948Z 24007KT 00/M00 A3023 RMK A01 T00011003  RH  098%=      5-min Rain = 0
KUM1 090949Z 24007KT 00/00 A3023 RMK A01 T00-000-4  RH  098%=      5-min Rain = 0
KUM1 090950Z 25008KT M00/M01 A3023 RMK A01 T10011005  RH  097%=      5-min Rain = 0
KUM1 090951Z 25008KT M00/M01 A3023 RMK A01 T10021005  RH  097%=      5-min Rain = 0
KUM1 090952Z 25008KT M00/M01 A3023 RMK A01 T10021006  RH  097%=      5-min Rain = 0
KUM1 090953Z 25008KT M00/M01 A3023 RMK A01 T10021006  RH  097%=      5-min Rain = 0
KUM1 090954Z 25008KT M00/M01 A3023 RMK A01 T10021006  RH  097%=      5-min Rain = 0
KUM1 090955Z 25008KT M00/M01 A3023 RMK A01 T10031006  RH  097%=      5-min Rain = 0
KUM1 090956Z 25007KT M00/M01 A3023 RMK A01 T10031007  RH  097%=      5-min Rain = 0
KUM1 090957Z 25008KT M00/M01 A3023 RMK A01 T10041008  RH  097%=      5-min Rain = 0
KUM1 090958Z 25008KT M00/M01 A3023 RMK A01 T10041008  RH  097%=      5-min Rain = 0
KUM1 090959Z 25007KT M00/M01 A3023 RMK A01 T10041008  RH  097%=      5-min Rain = 0
KUM1 091000Z 25008KT M00/M01 A3023 RMK A01 T10041008  RH  097%=      5-min Rain = 0
KUM1 091001Z 25008KT M00/M01 A3023 RMK A01 T10041008  RH  097%=      5-min Rain = 0
KUM1 091002Z 25008KT M00/M01 A3023 RMK A01 T10041008  RH  097%=      5-min Rain = 0
KUM1 091003Z 24008KT M00/M01 A3023 RMK A01 T10041008  RH  097%=      5-min Rain = 0
KUM1 091004Z 24007KT M00/M01 A3023 RMK A01 T10041008  RH  097%=      5-min Rain = 0
KUM1 091005Z 25007KT M00/M01 A3023 RMK A01 T10041008  RH  097%=      5-min Rain = 0
KUM1 091006Z 24007KT M00/M01 A3023 RMK A01 T10041009  RH  097%=      5-min Rain = 0
KUM1 091007Z 25007KT M01/M01 A3023 RMK A01 T10051009  RH  097%=      5-min Rain = 0
KUM1 091008Z 25007KT M01/M01 A3023 RMK A01 T10051009  RH  097%=      5-min Rain = 0
KUM1 091009Z 25008KT M01/M01 A3023 RMK A01 T10051009  RH  097%=      5-min Rain = 0
KUM1 091010Z 24006KT M01/M01 A3023 RMK A01 T10051009  RH  097%=      5-min Rain = 0
KUM1 091011Z 25006KT M01/M01 A3023 RMK A01 T10051009  RH  097%=      5-min Rain = 0
KUM1 091012Z 24006KT M01/M01 A3023 RMK A01 T10051009  RH  097%=      5-min Rain = 0
KUM1 091013Z 24007KT M01/M01 A3023 RMK A01 T10051009  RH  097%=      5-min Rain = 0
KUM1 091014Z 24007KT M01/M01 A3023 RMK A01 T10051010  RH  097%=      5-min Rain = 0
KUM1 091015Z 24006KT M01/M01 A3023 RMK A01 T10051010  RH  097%=      5-min Rain = 0
KUM1 091016Z 24007KT M01/M01 A3023 RMK A01 T10051010  RH  097%=      5-min Rain = 0
KUM1 091017Z 24007KT M01/M01 A3023 RMK A01 T10051009  RH  097%=      5-min Rain = 0
KUM1 091018Z 24006KT M00/M01 A3023 RMK A01 T10041009  RH  097%=      5-min Rain = 0
KUM1 091019Z 24007KT M01/M01 A3023 RMK A01 T10051009  RH  097%=      5-min Rain = 0
KUM1 091020Z 24007KT M01/M01 A3023 RMK A01 T10051009  RH  097%=      5-min Rain = 0
KUM1 091021Z 24006KT M00/M01 A3023 RMK A01 T10041008  RH  097%=      5-min Rain = 0
KUM1 091022Z 24007KT M00/M01 A3023 RMK A01 T10041008  RH  097%=      5-min Rain = 0
KUM1 091023Z 25006KT M00/M01 A3023 RMK A01 T10041008  RH  097%=      5-min Rain = 0
KUM1 091024Z 24006KT M00/M01 A3023 RMK A01 T10041009  RH  097%=      5-min Rain = 0
KUM1 091025Z 24006KT M00/M01 A3023 RMK A01 T10041008  RH  097%=      5-min Rain = 0
KUM1 091026Z 24006KT M00/M01 A3023 RMK A01 T10041009  RH  097%=      5-min Rain = 0
KUM1 091027Z 24006KT M00/M01 A3023 RMK A01 T10041008  RH  097%=      5-min Rain = 0
KUM1 091028Z 24007KT M00/M01 A3023 RMK A01 T10041009  RH  097%=      5-min Rain = 0
KUM1 091029Z 24007KT M00/M01 A3023 RMK A01 T10041008  RH  097%=      5-min Rain = 0
KUM1 091030Z 24007KT M00/M01 A3023 RMK A01 T10041009  RH  097%=      5-min Rain = 0
KUM1 091031Z 24008KT M00/M01 A3023 RMK A01 T10041009  RH  097%=      5-min Rain = 0
KUM1 091032Z 24007KT M00/M01 A3023 RMK A01 T10041009  RH  097%=      5-min Rain = 0
KUM1 091033Z 24007KT M00/M01 A3023 RMK A01 T10041009  RH  097%=      5-min Rain = 0
KUM1 091034Z 24008KT M01/M01 A3023 RMK A01 T10051010  RH  097%=      5-min Rain = 0
KUM1 091035Z 24007KT M01/M01 A3023 RMK A01 T10051010  RH  097%=      5-min Rain = 0
KUM1 091036Z 24007KT M01/M01 A3023 RMK A01 T10051010  RH  097%=      5-min Rain = 0
KUM1 091037Z 24007KT M01/M01 A3023 RMK A01 T10051010  RH  097%=      5-min Rain = 0
KUM1 091038Z 24007KT M01/M01 A3023 RMK A01 T10051010  RH  097%=      5-min Rain = 0
KUM1 091039Z 24007KT M01/M01 A3023 RMK A01 T10051010  RH  097%=      5-min Rain = 0
KUM1 091040Z 24008KT M01/M01 A3023 RMK A01 T10051010  RH  097%=      5-min Rain = 0
KUM1 091041Z 24008KT M01/M01 A3023 RMK A01 T10051010  RH  096%=      5-min Rain = 0
KUM1 091042Z 24008KT M01/M01 A3023 RMK A01 T10051009  RH  097%=      5-min Rain = 0
KUM1 091043Z 24008KT M00/M01 A3023 RMK A01 T10041009  RH  097%=      5-min Rain = 0
KUM1 091044Z 24008KT M00/M01 A3023 RMK A01 T10041009  RH  097%=      5-min Rain = 0
KUM1 091045Z 24008KT M00/M01 A3023 RMK A01 T10031008  RH  097%=      5-min Rain = 0
KUM1 091046Z 25007KT M00/M01 A3023 RMK A01 T10031008  RH  096%=      5-min Rain = 0
KUM1 091047Z 24007KT M00/M01 A3023 RMK A01 T10031008  RH  096%=      5-min Rain = 0
KUM1 091048Z 23008KT M00/M01 A3023 RMK A01 T10031008  RH  096%=      5-min Rain = 0
KUM1 091049Z 24007KT M00/M01 A3023 RMK A01 T10031008  RH  096%=      5-min Rain = 0
KUM1 091050Z 24007KT M00/M01 A3023 RMK A01 T10041009  RH  096%=      5-min Rain = 0
KUM1 091051Z 25006KT M00/M01 A3023 RMK A01 T10041010  RH  096%=      5-min Rain = 0
KUM1 091052Z 24007KT M00/M01 A3023 RMK A01 T10041010  RH  096%=      5-min Rain = 0
KUM1 091053Z 24007KT M00/M01 A3023 RMK A01 T10041010  RH  096%=      5-min Rain = 0
KUM1 091054Z 24006KT M01/M01 A3023 RMK A01 T10051011  RH  096%=      5-min Rain = 0
KUM1 091055Z 24007KT M01/M01 A3023 RMK A01 T10051011  RH  096%=      5-min Rain = 0
KUM1 091056Z 24007KT M01/M01 A3023 RMK A01 T10051011  RH  096%=      5-min Rain = 0
KUM1 091057Z 24007KT M01/M01 A3023 RMK A01 T10051011  RH  096%=      5-min Rain = 0
KUM1 091058Z 24007KT M01/M01 A3023 RMK A01 T10061011  RH  096%=      5-min Rain = 0
KUM1 091059Z 24006KT M01/M01 A3023 RMK A01 T10051011  RH  096%=      5-min Rain = 0
KUM1 091100Z 24005KT M01/M01 A3023 RMK A01 T10051011  RH  096%=      5-min Rain = 0
KUM1 091101Z 24006KT M01/M01 A3023 RMK A01 T10061012  RH  096%=      5-min Rain = 0
KUM1 091102Z 24006KT M01/M01 A3023 RMK A01 T10061012  RH  096%=      5-min Rain = 0
KUM1 091103Z 24007KT M01/M01 A3023 RMK A01 T10061011  RH  096%=      5-min Rain = 0
KUM1 091104Z 24007KT M01/M01 A3023 RMK A01 T10061011  RH  096%=      5-min Rain = 0
KUM1 091105Z 24006KT M01/M01 A3023 RMK A01 T10061011  RH  096%=      5-min Rain = 0
KUM1 091106Z 24006KT M01/M01 A3023 RMK A01 T10051011  RH  096%=      5-min Rain = 0
KUM1 091107Z 24006KT M01/M01 A3023 RMK A01 T10051011  RH  096%=      5-min Rain = 0
KUM1 091108Z 24006KT M01/M01 A3023 RMK A01 T10051011  RH  096%=      5-min Rain = 0
KUM1 091109Z 24006KT M01/M01 A3023 RMK A01 T10051010  RH  096%=      5-min Rain = 0
KUM1 091110Z 24006KT M01/M01 A3023 RMK A01 T10061011  RH  096%=      5-min Rain = 0
KUM1 091111Z 24007KT M01/M01 A3023 RMK A01 T10061011  RH  096%=      5-min Rain = 0
KUM1 091112Z 24007KT M01/M01 A3023 RMK A01 T10061012  RH  096%=      5-min Rain = 0
KUM1 091113Z 24007KT M01/M01 A3023 RMK A01 T10061012  RH  096%=      5-min Rain = 0
KUM1 091114Z 25007KT M01/M01 A3023 RMK A01 T10061012  RH  096%=      5-min Rain = 0
KUM1 091115Z 25007KT M01/M01 A3023 RMK A01 T10061011  RH  096%=      5-min Rain = 0
KUM1 091116Z 24007KT M01/M01 A3023 RMK A01 T10061012  RH  096%=      5-min Rain = 0
KUM1 091117Z 25006KT M01/M01 A3023 RMK A01 T10071012  RH  096%=      5-min Rain = 0
KUM1 091118Z 25006KT M01/M01 A3023 RMK A01 T10071012  RH  096%=      5-min Rain = 0
KUM1 091119Z 25006KT M01/M01 A3023 RMK A01 T10081013  RH  096%=      5-min Rain = 0
KUM1 091120Z 25006KT M01/M01 A3023 RMK A01 T10081014  RH  096%=      5-min Rain = 0
KUM1 091121Z 25006KT M01/M02 A3023 RMK A01 T10091015  RH  096%=      5-min Rain = 0
KUM1 091122Z 25006KT M01/M02 A3023 RMK A01 T10101016  RH  096%=      5-min Rain = 0
KUM1 091123Z 25006KT M01/M02 A3023 RMK A01 T10111017  RH  096%=      5-min Rain = 0
KUM1 091124Z 25006KT M01/M02 A3023 RMK A01 T10111017  RH  096%=      5-min Rain = 0
KUM1 091125Z 25006KT M01/M02 A3023 RMK A01 T10111017  RH  096%=      5-min Rain = 0
KUM1 091126Z 24007KT M01/M02 A3023 RMK A01 T10111017  RH  096%=      5-min Rain = 0
KUM1 091127Z 24006KT M01/M02 A3023 RMK A01 T10111016  RH  096%=      5-min Rain = 0
KUM1 091128Z 25006KT M01/M02 A3023 RMK A01 T10111016  RH  096%=      5-min Rain = 0
KUM1 091129Z 25006KT M01/M02 A3023 RMK A01 T10111016  RH  096%=      5-min Rain = 0
KUM1 091130Z 25007KT M01/M02 A3023 RMK A01 T10101015  RH  096%=      5-min Rain = 0
KUM1 091131Z 25007KT M01/M02 A3023 RMK A01 T10101015  RH  096%=      5-min Rain = 0
KUM1 091132Z 25007KT M01/M01 A3023 RMK A01 T10091014  RH  097%=      5-min Rain = 0
KUM1 091133Z 25007KT M01/M01 A3023 RMK A01 T10091014  RH  097%=      5-min Rain = 0
KUM1 091134Z 25007KT M01/M01 A3023 RMK A01 T10081013  RH  097%=      5-min Rain = 0
KUM1 091135Z 25007KT M01/M01 A3023 RMK A01 T10081013  RH  097%=      5-min Rain = 0
KUM1 091136Z 25006KT M01/M01 A3023 RMK A01 T10091014  RH  096%=      5-min Rain = 0
KUM1 091137Z 25006KT M01/M01 A3023 RMK A01 T10091014  RH  096%=      5-min Rain = 0
KUM1 091138Z 25006KT M01/M02 A3023 RMK A01 T10101015  RH  096%=      5-min Rain = 0
KUM1 091139Z 25006KT M01/M02 A3023 RMK A01 T10101015  RH  096%=      5-min Rain = 0
KUM1 091140Z 25007KT M01/M02 A3023 RMK A01 T10101015  RH  096%=      5-min Rain = 0
KUM1 091141Z 25007KT M01/M02 A3023 RMK A01 T10101015  RH  096%=      5-min Rain = 0
KUM1 091142Z 25007KT M01/M02 A3023 RMK A01 T10101015  RH  096%=      5-min Rain = 0
KUM1 091143Z 25007KT M01/M02 A3023 RMK A01 T10091015  RH  096%=      5-min Rain = 0
KUM1 091144Z 25007KT M01/M01 A3023 RMK A01 T10091014  RH  096%=      5-min Rain = 0
KUM1 091145Z 25007KT M01/M01 A3023 RMK A01 T10081014  RH  096%=      5-min Rain = 0
KUM1 091146Z 25007KT M01/M01 A3023 RMK A01 T10081013  RH  096%=      5-min Rain = 0
KUM1 091147Z 25007KT M01/M01 A3023 RMK A01 T10081013  RH  096%=      5-min Rain = 0
KUM1 091148Z 25007KT M01/M01 A3023 RMK A01 T10081013  RH  096%=      5-min Rain = 0
KUM1 091149Z 25007KT M01/M01 A3023 RMK A01 T10081013  RH  096%=      5-min Rain = 0
KUM1 091150Z 25007KT M01/M01 A3023 RMK A01 T10081013  RH  096%=      5-min Rain = 0
KUM1 091151Z 25008KT M01/M01 A3023 RMK A01 T10071013  RH  096%=      5-min Rain = 0
KUM1 091152Z 25007KT M01/M01 A3023 RMK A01 T10071012  RH  096%=      5-min Rain = 0
KUM1 091153Z 25007KT M01/M01 A3023 RMK A01 T10071013  RH  096%=      5-min Rain = 0
KUM1 091154Z 25007KT M01/M01 A3023 RMK A01 T10071013  RH  096%=      5-min Rain = 0
KUM1 091155Z 25006KT M01/M01 A3023 RMK A01 T10081014  RH  096%=      5-min Rain = 0
KUM1 091156Z 25006KT M01/M02 A3023 RMK A01 T10091015  RH  096%=      5-min Rain = 0
KUM1 091157Z 25006KT M01/M02 A3023 RMK A01 T10091015  RH  096%=      5-min Rain = 0
KUM1 091158Z 25006KT M01/M02 A3023 RMK A01 T10091015  RH  096%=      5-min Rain = 0
KUM1 091159Z 25006KT M01/M02 A3023 RMK A01 T10091015  RH  096%=      5-min Rain = 0
KUM1 091200Z 25006KT M01/M02 A3023 RMK A01 T10101016  RH  096%=      5-min Rain = 0
KUM1 091201Z 25006KT M01/M02 A3023 RMK A01 T10101016  RH  096%=      5-min Rain = 0
KUM1 091202Z 25007KT M01/M02 A3023 RMK A01 T10101015  RH  096%=      5-min Rain = 0
KUM1 091203Z 25007KT M01/M02 A3023 RMK A01 T10091015  RH  096%=      5-min Rain = 0
KUM1 091204Z 25006KT M01/M01 A3023 RMK A01 T10091014  RH  096%=      5-min Rain = 0
KUM1 091205Z 24007KT M01/M01 A3023 RMK A01 T10081014  RH  096%=      5-min Rain = 0
KUM1 091206Z 25007KT M01/M01 A3023 RMK A01 T10081013  RH  096%=      5-min Rain = 0
KUM1 091207Z 25007KT M01/M01 A3023 RMK A01 T10081013  RH  096%=      5-min Rain = 0
KUM1 091208Z 25007KT M01/M01 A3023 RMK A01 T10081013  RH  096%=      5-min Rain = 0
KUM1 091209Z 25006KT M01/M01 A3023 RMK A01 T10071013  RH  096%=      5-min Rain = 0
KUM1 091210Z 25006KT M01/M01 A3023 RMK A01 T10081014  RH  096%=      5-min Rain = 0
KUM1 091211Z 24006KT M01/M01 A3023 RMK A01 T10081014  RH  096%=      5-min Rain = 0
KUM1 091212Z 25006KT M01/M01 A3023 RMK A01 T10081013  RH  096%=      5-min Rain = 0
KUM1 091213Z 25006KT M01/M01 A3024 RMK A01 T10081014  RH  096%=      5-min Rain = 0
KUM1 091214Z 25006KT M01/M01 A3024 RMK A01 T10081013  RH  096%=      5-min Rain = 0
KUM1 091215Z 24006KT M01/M01 A3023 RMK A01 T10081014  RH  096%=      5-min Rain = 0
KUM1 091216Z 25006KT M01/M01 A3023 RMK A01 T10081014  RH  096%=      5-min Rain = 0
KUM1 091217Z 25007KT M01/M01 A3023 RMK A01 T10081014  RH  096%=      5-min Rain = 0
KUM1 091218Z 25008KT M01/M01 A3023 RMK A01 T10081014  RH  096%=      5-min Rain = 0
KUM1 091219Z 25007KT M01/M01 A3023 RMK A01 T10071013  RH  096%=      5-min Rain = 0
KUM1 091220Z 25006KT M01/M01 A3023 RMK A01 T10071013  RH  096%=      5-min Rain = 0
KUM1 091221Z 24007KT M01/M01 A3023 RMK A01 T10071013  RH  096%=      5-min Rain = 0
KUM1 091222Z 25007KT M01/M01 A3023 RMK A01 T10071013  RH  096%=      5-min Rain = 0
KUM1 091223Z 25007KT M01/M01 A3023 RMK A01 T10071013  RH  096%=      5-min Rain = 0
KUM1 091224Z 25007KT M01/M01 A3023 RMK A01 T10071013  RH  096%=      5-min Rain = 0
KUM1 091225Z 25006KT M01/M01 A3024 RMK A01 T10071014  RH  096%=      5-min Rain = 0
KUM1 091226Z 25006KT M01/M01 A3024 RMK A01 T10081014  RH  095%=      5-min Rain = 0
KUM1 091227Z 24007KT M01/M01 A3024 RMK A01 T10081014  RH  095%=      5-min Rain = 0
KUM1 091228Z 25007KT M01/M02 A3024 RMK A01 T10081015  RH  095%=      5-min Rain = 0
KUM1 091229Z 25006KT M01/M02 A3024 RMK A01 T10091016  RH  095%=      5-min Rain = 0
KUM1 091230Z 25007KT M01/M02 A3023 RMK A01 T10091016  RH  095%=      5-min Rain = 0
KUM1 091231Z 25007KT M01/M02 A3023 RMK A01 T10091016  RH  095%=      5-min Rain = 0
KUM1 091232Z 25007KT M01/M02 A3023 RMK A01 T10091016  RH  095%=      5-min Rain = 0
KUM1 091233Z 25007KT M01/M02 A3023 RMK A01 T10101016  RH  095%=      5-min Rain = 0
KUM1 091234Z 25007KT M01/M02 A3023 RMK A01 T10101016  RH  095%=      5-min Rain = 0
KUM1 091235Z 25007KT M01/M02 A3023 RMK A01 T10091016  RH  095%=      5-min Rain = 0
KUM1 091236Z 25007KT M01/M02 A3023 RMK A01 T10091015  RH  096%=      5-min Rain = 0
KUM1 091237Z 24006KT M01/M02 A3023 RMK A01 T10091015  RH  096%=      5-min Rain = 0
KUM1 091238Z 25006KT M01/M02 A3023 RMK A01 T10091015  RH  096%=      5-min Rain = 0
KUM1 091239Z 24006KT M01/M02 A3023 RMK A01 T10091015  RH  095%=      5-min Rain = 0
KUM1 091240Z 25006KT M01/M02 A3023 RMK A01 T10091016  RH  095%=      5-min Rain = 0
KUM1 091241Z 25006KT M01/M02 A3023 RMK A01 T10091015  RH  095%=      5-min Rain = 0
KUM1 091242Z 25006KT M01/M02 A3023 RMK A01 T10091016  RH  095%=      5-min Rain = 0
KUM1 091243Z 25007KT M01/M02 A3023 RMK A01 T10091016  RH  095%=      5-min Rain = 0
KUM1 091244Z 25006KT M01/M02 A3023 RMK A01 T10091016  RH  095%=      5-min Rain = 0
KUM1 091245Z 25006KT M01/M02 A3023 RMK A01 T10091016  RH  095%=      5-min Rain = 0
KUM1 091246Z 25006KT M01/M02 A3023 RMK A01 T10091016  RH  095%=      5-min Rain = 0
KUM1 091247Z 25006KT M01/M02 A3023 RMK A01 T10091016  RH  095%=      5-min Rain = 0
KUM1 091248Z 25006KT M01/M02 A3023 RMK A01 T10091016  RH  095%=      5-min Rain = 0
KUM1 091249Z 25007KT M01/M02 A3023 RMK A01 T10091016  RH  095%=      5-min Rain = 0
KUM1 091250Z 26008KT M01/M02 A3023 RMK A01 T10101017  RH  095%=      5-min Rain = 0
KUM1 091251Z 26007KT M01/M02 A3023 RMK A01 T10101017  RH  095%=      5-min Rain = 0
KUM1 091252Z 25006KT M01/M02 A3023 RMK A01 T10101016  RH  095%=      5-min Rain = 0
KUM1 091253Z 25007KT M01/M02 A3023 RMK A01 T10101017  RH  095%=      5-min Rain = 0
KUM1 091254Z 25007KT M01/M02 A3023 RMK A01 T10101017  RH  095%=      5-min Rain = 0
KUM1 091255Z 25006KT M01/M02 A3023 RMK A01 T10101016  RH  095%=      5-min Rain = 0
KUM1 091256Z 24007KT M01/M02 A3023 RMK A01 T10101016  RH  095%=      5-min Rain = 0
KUM1 091257Z 25007KT M01/M02 A3023 RMK A01 T10101016  RH  095%=      5-min Rain = 0
KUM1 091258Z 25007KT M01/M02 A3023 RMK A01 T10101017  RH  095%=      5-min Rain = 0
KUM1 091259Z 25007KT M01/M02 A3023 RMK A01 T10101017  RH  095%=      5-min Rain = 0
KUM1 091300Z 25007KT M01/M02 A3023 RMK A01 T10101017  RH  095%=      5-min Rain = 0
KUM1 091301Z 24007KT M01/M02 A3023 RMK A01 T10101016  RH  095%=      5-min Rain = 0
KUM1 091302Z 24007KT M01/M02 A3023 RMK A01 T10101017  RH  095%=      5-min Rain = 0
KUM1 091303Z 24007KT M01/M02 A3023 RMK A01 T10101017  RH  095%=      5-min Rain = 0
KUM1 091304Z 24007KT M01/M02 A3023 RMK A01 T10101017  RH  095%=      5-min Rain = 0
KUM1 091305Z 24007KT M01/M02 A3023 RMK A01 T10101016  RH  095%=      5-min Rain = 0
KUM1 091306Z 24007KT M01/M02 A3023 RMK A01 T10091016  RH  095%=      5-min Rain = 0
KUM1 091307Z 24007KT M01/M02 A3023 RMK A01 T10091016  RH  095%=      5-min Rain = 0
KUM1 091308Z 24007KT M01/M02 A3023 RMK A01 T10091016  RH  095%=      5-min Rain = 0
KUM1 091309Z 24007KT M01/M02 A3023 RMK A01 T10091016  RH  095%=      5-min Rain = 0
KUM1 091310Z 24007KT M01/M02 A3024 RMK A01 T10081015  RH  095%=      5-min Rain = 0
KUM1 091311Z 24007KT M01/M02 A3024 RMK A01 T10091015  RH  095%=      5-min Rain = 0
KUM1 091312Z 24007KT M01/M02 A3024 RMK A01 T10091015  RH  095%=      5-min Rain = 0
KUM1 091313Z 24006KT M01/M02 A3024 RMK A01 T10091015  RH  095%=      5-min Rain = 0
KUM1 091314Z 24006KT M01/M02 A3024 RMK A01 T10081015  RH  095%=      5-min Rain = 0
KUM1 091315Z 24007KT M01/M01 A3024 RMK A01 T10081014  RH  095%=      5-min Rain = 0
KUM1 091316Z 24007KT M01/M01 A3024 RMK A01 T10081014  RH  095%=      5-min Rain = 0
KUM1 091317Z 25007KT M01/M01 A3024 RMK A01 T10081014  RH  095%=      5-min Rain = 0
KUM1 091318Z 24006KT M01/M02 A3024 RMK A01 T10081015  RH  095%=      5-min Rain = 0
KUM1 091319Z 24006KT M01/M01 A3024 RMK A01 T10081014  RH  095%=      5-min Rain = 0
KUM1 091320Z 25006KT M01/M01 A3024 RMK A01 T10081014  RH  095%=      5-min Rain = 0
KUM1 091321Z 24007KT M01/M01 A3024 RMK A01 T10071014  RH  095%=      5-min Rain = 0
KUM1 091322Z 24007KT M01/M01 A3024 RMK A01 T10071014  RH  095%=      5-min Rain = 0
KUM1 091323Z 24007KT M01/M01 A3024 RMK A01 T10071013  RH  095%=      5-min Rain = 0
KUM1 091324Z 24007KT M01/M01 A3024 RMK A01 T10071014  RH  095%=      5-min Rain = 0
KUM1 091325Z 23007KT M01/M01 A3024 RMK A01 T10071014  RH  095%=      5-min Rain = 0
KUM1 091326Z 23006KT M01/M01 A3024 RMK A01 T10071014  RH  095%=      5-min Rain = 0
KUM1 091327Z 23006KT M01/M01 A3024 RMK A01 T10071014  RH  095%=      5-min Rain = 0
KUM1 091328Z 23005KT M01/M01 A3024 RMK A01 T10071014  RH  095%=      5-min Rain = 0
KUM1 091329Z 23006KT M01/M01 A3024 RMK A01 T10071014  RH  095%=      5-min Rain = 0
KUM1 091330Z 23006KT M01/M01 A3024 RMK A01 T10071014  RH  095%=      5-min Rain = 0
KUM1 091331Z 23006KT M01/M01 A3024 RMK A01 T10061013  RH  095%=      5-min Rain = 0
KUM1 091332Z 23006KT M01/M01 A3024 RMK A01 T10061013  RH  095%=      5-min Rain = 0
KUM1 091333Z 23006KT M01/M01 A3024 RMK A01 T10061013  RH  095%=      5-min Rain = 0
KUM1 091334Z 23006KT M01/M01 A3024 RMK A01 T10061013  RH  095%=      5-min Rain = 0
KUM1 091335Z 23007KT M01/M01 A3024 RMK A01 T10061013  RH  095%=      5-min Rain = 0
KUM1 091336Z 23007KT M01/M01 A3024 RMK A01 T10061013  RH  095%=      5-min Rain = 0
KUM1 091337Z 23006KT M01/M01 A3024 RMK A01 T10051012  RH  095%=      5-min Rain = 0
KUM1 091338Z 24006KT M00/M01 A3024 RMK A01 T10041011  RH  095%=      5-min Rain = 0
KUM1 091339Z 24006KT M00/M01 A3024 RMK A01 T10031010  RH  095%=      5-min Rain = 0
KUM1 091340Z 24006KT M00/M01 A3024 RMK A01 T10021009  RH  095%=      5-min Rain = 0
KUM1 091341Z 24007KT M00/M01 A3024 RMK A01 T10021008  RH  095%=      5-min Rain = 0
KUM1 091342Z 24006KT M00/M01 A3024 RMK A01 T10021008  RH  095%=      5-min Rain = 0
KUM1 091343Z 23007KT M00/M01 A3024 RMK A01 T10011007  RH  095%=      5-min Rain = 0
KUM1 091344Z 23006KT 00/01 A3024 RMK A01 T00-000-7  RH  095%=      5-min Rain = 0
KUM1 091345Z 23007KT 00/01 A3024 RMK A01 T000000-7  RH  095%=      5-min Rain = 0
KUM1 091346Z 23008KT 00/01 A3024 RMK A01 T000000-7  RH  095%=      5-min Rain = 0
KUM1 091347Z 24007KT 00/M01 A3024 RMK A01 T00011007  RH  095%=      5-min Rain = 0
KUM1 091348Z 24008KT 00/M01 A3024 RMK A01 T00011006  RH  095%=      5-min Rain = 0
KUM1 091349Z 24008KT 00/M01 A3024 RMK A01 T00021006  RH  095%=      5-min Rain = 0
KUM1 091350Z 24007KT 00/M01 A3024 RMK A01 T00021005  RH  095%=      5-min Rain = 0
KUM1 091351Z 24007KT 00/M01 A3024 RMK A01 T00021005  RH  095%=      5-min Rain = 0
KUM1 091352Z 24008KT 00/M00 A3024 RMK A01 T00031004  RH  095%=      5-min Rain = 0
KUM1 091353Z 24007KT 00/M01 A3024 RMK A01 T00031005  RH  095%=      5-min Rain = 0
KUM1 091354Z 24008KT 00/M01 A3024 RMK A01 T00031005  RH  095%=      5-min Rain = 0
KUM1 091355Z 24008KT 00/M00 A3024 RMK A01 T00031004  RH  095%=      5-min Rain = 0
KUM1 091356Z 24007KT 00/M00 A3024 RMK A01 T00041004  RH  094%=      5-min Rain = 0
KUM1 091357Z 24007KT 00/M00 A3024 RMK A01 T00041004  RH  094%=      5-min Rain = 0
KUM1 091358Z 24006KT 00/M00 A3024 RMK A01 T00041003  RH  095%=      5-min Rain = 0
KUM1 091359Z 24007KT 01/M00 A3024 RMK A01 T00051003  RH  095%=      5-min Rain = 0
KUM1 091400Z 24007KT 01/M00 A3024 RMK A01 T00061002  RH  095%=      5-min Rain = 0
KUM1 091401Z 24008KT 01/M00 A3024 RMK A01 T00061002  RH  095%=      5-min Rain = 0
KUM1 091402Z 24006KT 01/M00 A3024 RMK A01 T00071001  RH  095%=      5-min Rain = 0
KUM1 091403Z 24007KT 01/M00 A3024 RMK A01 T00071001  RH  095%=      5-min Rain = 0
KUM1 091404Z 24006KT 01/00 A3024 RMK A01 T00080000  RH  095%=      5-min Rain = 0
KUM1 091405Z 24006KT 01/00 A3024 RMK A01 T00080001  RH  095%=      5-min Rain = 0
KUM1 091406Z 24006KT 01/00 A3024 RMK A01 T00090001  RH  095%=      5-min Rain = 0
KUM1 091407Z 24007KT 01/00 A3024 RMK A01 T00100002  RH  095%=      5-min Rain = 0
KUM1 091408Z 24006KT 01/00 A3024 RMK A01 T00100002  RH  095%=      5-min Rain = 0
KUM1 091409Z 24006KT 01/00 A3024 RMK A01 T00110003  RH  095%=      5-min Rain = 0
KUM1 091410Z 25006KT 01/00 A3024 RMK A01 T00110003  RH  095%=      5-min Rain = 0
KUM1 091411Z 24006KT 01/00 A3024 RMK A01 T00110003  RH  095%=      5-min Rain = 0
KUM1 091412Z 24006KT 01/00 A3024 RMK A01 T00120004  RH  095%=      5-min Rain = 0
KUM1 091413Z 24007KT 01/01 A3024 RMK A01 T00130005  RH  095%=      5-min Rain = 0
KUM1 091414Z 25006KT 01/01 A3024 RMK A01 T00130006  RH  095%=      5-min Rain = 0
KUM1 091415Z 25006KT 01/01 A3024 RMK A01 T00140006  RH  095%=      5-min Rain = 0
KUM1 091416Z 25006KT 02/01 A3024 RMK A01 T00150007  RH  095%=      5-min Rain = 0
KUM1 091417Z 24008KT 02/01 A3024 RMK A01 T00150008  RH  095%=      5-min Rain = 0
KUM1 091418Z 25006KT 02/01 A3024 RMK A01 T00150007  RH  094%=      5-min Rain = 0
KUM1 091419Z 25007KT 02/01 A3024 RMK A01 T00160008  RH  095%=      5-min Rain = 0
KUM1 091420Z 24007KT 02/01 A3024 RMK A01 T00160008  RH  095%=      5-min Rain = 0
KUM1 091421Z 25006KT 02/01 A3025 RMK A01 T00170009  RH  095%=      5-min Rain = 0
KUM1 091422Z 25007KT 02/01 A3025 RMK A01 T00180010  RH  095%=      5-min Rain = 0
KUM1 091423Z 25007KT 02/01 A3025 RMK A01 T00180010  RH  094%=      5-min Rain = 0
KUM1 091424Z 25007KT 02/01 A3025 RMK A01 T00190011  RH  094%=      5-min Rain = 0
KUM1 091425Z 25007KT 02/01 A3025 RMK A01 T00200012  RH  095%=      5-min Rain = 0
KUM1 091426Z 25007KT 02/01 A3025 RMK A01 T00210013  RH  095%=      5-min Rain = 0
KUM1 091427Z 25007KT 02/01 A3025 RMK A01 T00220014  RH  095%=      5-min Rain = 0
KUM1 091428Z 26006KT 02/01 A3025 RMK A01 T00220014  RH  095%=      5-min Rain = 0
KUM1 091429Z 25006KT 02/02 A3025 RMK A01 T00230015  RH  094%=      5-min Rain = 0
KUM1 091430Z 25007KT 02/02 A3025 RMK A01 T00240016  RH  094%=      5-min Rain = 0
KUM1 091431Z 25007KT 02/02 A3025 RMK A01 T00240015  RH  094%=      5-min Rain = 0
KUM1 091432Z 25006KT 03/02 A3025 RMK A01 T00250016  RH  094%=      5-min Rain = 0
KUM1 091433Z 25007KT 03/02 A3025 RMK A01 T00250016  RH  094%=      5-min Rain = 0
KUM1 091434Z 25007KT 03/02 A3025 RMK A01 T00260017  RH  093%=      5-min Rain = 0
KUM1 091435Z 25006KT 03/02 A3025 RMK A01 T00280019  RH  093%=      5-min Rain = 0
KUM1 091436Z 25007KT 03/02 A3025 RMK A01 T00300020  RH  093%=      5-min Rain = 0
KUM1 091437Z 25006KT 03/02 A3025 RMK A01 T00310021  RH  093%=      5-min Rain = 0
KUM1 091438Z 25006KT 03/02 A3025 RMK A01 T00320021  RH  092%=      5-min Rain = 0
KUM1 091439Z 25006KT 03/02 A3025 RMK A01 T00330022  RH  092%=      5-min Rain = 0
KUM1 091440Z 25007KT 04/02 A3025 RMK A01 T00350024  RH  092%=      5-min Rain = 0
KUM1 091441Z 25007KT 04/03 A3025 RMK A01 T00360025  RH  092%=      5-min Rain = 0
KUM1 091442Z 25007KT 04/03 A3025 RMK A01 T00380026  RH  092%=      5-min Rain = 0
KUM1 091443Z 25007KT 04/03 A3025 RMK A01 T00380025  RH  091%=      5-min Rain = 0
KUM1 091444Z 25007KT 04/03 A3025 RMK A01 T00390026  RH  091%=      5-min Rain = 0
KUM1 091445Z 25006KT 04/03 A3025 RMK A01 T00400028  RH  092%=      5-min Rain = 0
KUM1 091446Z 25006KT 04/03 A3025 RMK A01 T00420029  RH  092%=      5-min Rain = 0
KUM1 091447Z 25007KT 04/03 A3025 RMK A01 T00420028  RH  091%=      5-min Rain = 0
KUM1 091448Z 25006KT 04/03 A3025 RMK A01 T00430028  RH  090%=      5-min Rain = 0
KUM1 091449Z 25006KT 04/03 A3025 RMK A01 T00430029  RH  091%=      5-min Rain = 0
KUM1 091450Z 26006KT 04/03 A3025 RMK A01 T00440030  RH  091%=      5-min Rain = 0
KUM1 091451Z 26006KT 05/03 A3025 RMK A01 T00450032  RH  091%=      5-min Rain = 0
KUM1 091452Z 26006KT 05/03 A3025 RMK A01 T00460032  RH  091%=      5-min Rain = 0
KUM1 091453Z 26006KT 05/03 A3025 RMK A01 T00480034  RH  091%=      5-min Rain = 0
KUM1 091454Z 26006KT 05/03 A3025 RMK A01 T00480034  RH  090%=      5-min Rain = 0
KUM1 091455Z 26006KT 05/03 A3025 RMK A01 T00490034  RH  090%=      5-min Rain = 0
KUM1 091456Z 26006KT 05/04 A3025 RMK A01 T00510037  RH  090%=      5-min Rain = 0
KUM1 091457Z 26005KT 05/04 A3025 RMK A01 T00530038  RH  090%=      5-min Rain = 0
KUM1 091458Z 26006KT 06/04 A3025 RMK A01 T00550041  RH  091%=      5-min Rain = 0
KUM1 091459Z 25005KT 06/04 A3025 RMK A01 T00560041  RH  090%=      5-min Rain = 0
KUM1 091500Z 26006KT 06/04 A3025 RMK A01 T00580043  RH  090%=      5-min Rain = 0
KUM1 091501Z 26006KT 06/05 A3025 RMK A01 T00600045  RH  090%=      5-min Rain = 0
KUM1 091502Z 26006KT 06/05 A3025 RMK A01 T00620046  RH  089%=      5-min Rain = 0
KUM1 091503Z 26006KT 07/05 A3025 RMK A01 T00650048  RH  089%=      5-min Rain = 0
KUM1 091504Z 26006KT 07/05 A3025 RMK A01 T00670049  RH  089%=      5-min Rain = 0
KUM1 091505Z 26006KT 07/05 A3025 RMK A01 T00670047  RH  087%=      5-min Rain = 0
KUM1 091506Z 26006KT 07/05 A3025 RMK A01 T00680047  RH  086%=      5-min Rain = 0
KUM1 091507Z 27005KT 07/05 A3025 RMK A01 T00680045  RH  086%=      5-min Rain = 0
KUM1 091508Z 26005KT 07/05 A3025 RMK A01 T00680047  RH  086%=      5-min Rain = 0
KUM1 091509Z 26005KT 07/05 A3025 RMK A01 T00700049  RH  087%=      5-min Rain = 0
KUM1 091510Z 26006KT 07/05 A3025 RMK A01 T00710049  RH  086%=      5-min Rain = 0
KUM1 091511Z 26005KT 07/05 A3025 RMK A01 T00720050  RH  086%=      5-min Rain = 0
KUM1 091512Z 26006KT 07/05 A3025 RMK A01 T00730051  RH  086%=      5-min Rain = 0
KUM1 091513Z 26004KT 07/05 A3025 RMK A01 T00730051  RH  086%=      5-min Rain = 0
KUM1 091514Z 26005KT 08/05 A3025 RMK A01 T00750054  RH  086%=      5-min Rain = 0
KUM1 091515Z 26006KT 08/05 A3025 RMK A01 T00770054  RH  086%=      5-min Rain = 0
KUM1 091516Z 27005KT 08/05 A3025 RMK A01 T00770053  RH  085%=      5-min Rain = 0
KUM1 091517Z 26004KT 08/05 A3025 RMK A01 T00780054  RH  085%=      5-min Rain = 0
KUM1 091518Z 27005KT 08/06 A3025 RMK A01 T00790056  RH  085%=      5-min Rain = 0
KUM1 091519Z 27005KT 08/06 A3025 RMK A01 T00810058  RH  085%=      5-min Rain = 0
KUM1 091520Z 27004KT 08/06 A3025 RMK A01 T00830058  RH  085%=      5-min Rain = 0
KUM1 091521Z 28005KT 08/06 A3025 RMK A01 T00840058  RH  084%=      5-min Rain = 0
KUM1 091522Z 28005KT 08/06 A3025 RMK A01 T00840056  RH  083%=      5-min Rain = 0
KUM1 091523Z 27005KT 09/06 A3025 RMK A01 T00850059  RH  084%=      5-min Rain = 0
KUM1 091524Z 27005KT 09/06 A3025 RMK A01 T00860057  RH  082%=      5-min Rain = 0
KUM1 091525Z 27005KT 09/06 A3025 RMK A01 T00850055  RH  081%=      5-min Rain = 0
KUM1 091526Z 28005KT 09/06 A3026 RMK A01 T00850057  RH  082%=      5-min Rain = 0
KUM1 091527Z 28005KT 09/06 A3026 RMK A01 T00860057  RH  082%=      5-min Rain = 0
KUM1 091528Z 28004KT 09/06 A3026 RMK A01 T00860057  RH  082%=      5-min Rain = 0
KUM1 091529Z 28005KT 09/06 A3026 RMK A01 T00860058  RH  082%=      5-min Rain = 0
KUM1 091530Z 28004KT 09/06 A3026 RMK A01 T00890062  RH  083%=      5-min Rain = 0
KUM1 091531Z 27004KT 09/06 A3026 RMK A01 T00910064  RH  083%=      5-min Rain = 0
KUM1 091532Z 27004KT 09/06 A3026 RMK A01 T00920062  RH  082%=      5-min Rain = 0
KUM1 091533Z 27006KT 09/06 A3025 RMK A01 T00930062  RH  081%=      5-min Rain = 0
KUM1 091534Z 27006KT 09/06 A3025 RMK A01 T00930062  RH  081%=      5-min Rain = 0
KUM1 091535Z 27006KT 09/06 A3025 RMK A01 T00940061  RH  080%=      5-min Rain = 0
KUM1 091536Z 26005KT 10/06 A3025 RMK A01 T00950061  RH  080%=      5-min Rain = 0
KUM1 091537Z 26005KT 10/07 A3025 RMK A01 T00960065  RH  081%=      5-min Rain = 0
KUM1 091538Z 26005KT 10/07 A3025 RMK A01 T00990066  RH  080%=      5-min Rain = 0
KUM1 091539Z 25006KT 10/07 A3025 RMK A01 T01000065  RH  079%=      5-min Rain = 0
KUM1 091540Z 25006KT 10/06 A3025 RMK A01 T01000063  RH  078%=      5-min Rain = 0
KUM1 091541Z 25006KT 10/06 A3025 RMK A01 T01000064  RH  078%=      5-min Rain = 0
KUM1 091542Z 26006KT 10/06 A3025 RMK A01 T01000062  RH  077%=      5-min Rain = 0
KUM1 091543Z 26006KT 10/06 A3025 RMK A01 T01000062  RH  077%=      5-min Rain = 0
KUM1 091544Z 26005KT 10/06 A3025 RMK A01 T01010064  RH  078%=      5-min Rain = 0
KUM1 091545Z 25005KT 10/07 A3025 RMK A01 T01030067  RH  079%=      5-min Rain = 0
KUM1 091546Z 26005KT 10/07 A3025 RMK A01 T01040065  RH  077%=      5-min Rain = 0
KUM1 091547Z 26006KT 11/07 A3025 RMK A01 T01050067  RH  077%=      5-min Rain = 0
KUM1 091548Z 26006KT 11/07 A3025 RMK A01 T01060065  RH  076%=      5-min Rain = 0
KUM1 091549Z 26005KT 11/07 A3025 RMK A01 T01060066  RH  076%=      5-min Rain = 0
KUM1 091550Z 25004KT 11/07 A3025 RMK A01 T01080069  RH  077%=      5-min Rain = 0
KUM1 091551Z 25004KT 11/07 A3025 RMK A01 T01080068  RH  076%=      5-min Rain = 0
KUM1 091552Z 25004KT 11/07 A3025 RMK A01 T01080070  RH  077%=      5-min Rain = 0
KUM1 091553Z 26005KT 11/07 A3025 RMK A01 T01080069  RH  077%=      5-min Rain = 0
KUM1 091554Z 28006KT 11/07 A3025 RMK A01 T01100070  RH  076%=      5-min Rain = 0
KUM1 091555Z 26004KT 11/07 A3026 RMK A01 T01120069  RH  075%=      5-min Rain = 0
KUM1 091556Z 25004KT 11/07 A3026 RMK A01 T01130072  RH  076%=      5-min Rain = 0
KUM1 091557Z 25004KT 11/07 A3026 RMK A01 T01140074  RH  076%=      5-min Rain = 0
KUM1 091558Z 26004KT 12/07 A3026 RMK A01 T01160073  RH  075%=      5-min Rain = 0
KUM1 091559Z 25004KT 12/07 A3025 RMK A01 T01160074  RH  075%=      5-min Rain = 0
KUM1 091600Z 25004KT 12/08 A3025 RMK A01 T01180075  RH  075%=      5-min Rain = 0
KUM1 091601Z 25004KT 12/07 A3025 RMK A01 T01180073  RH  074%=      5-min Rain = 0
KUM1 091602Z 25005KT 12/08 A3025 RMK A01 T01190075  RH  074%=      5-min Rain = 0
KUM1 091603Z 25004KT 12/07 A3025 RMK A01 T01200074  RH  073%=      5-min Rain = 0
KUM1 091604Z 25004KT 12/08 A3025 RMK A01 T01210077  RH  074%=      5-min Rain = 0
KUM1 091605Z 24004KT 12/08 A3025 RMK A01 T01220076  RH  074%=      5-min Rain = 0
KUM1 091606Z 24005KT 12/08 A3025 RMK A01 T01230077  RH  074%=      5-min Rain = 0
KUM1 091607Z 24005KT 12/08 A3025 RMK A01 T01240076  RH  072%=      5-min Rain = 0
KUM1 091608Z 25005KT 12/08 A3025 RMK A01 T01240076  RH  072%=      5-min Rain = 0
KUM1 091609Z 25006KT 12/08 A3025 RMK A01 T01240076  RH  072%=      5-min Rain = 0
KUM1 091610Z 25005KT 13/08 A3025 RMK A01 T01250076  RH  072%=      5-min Rain = 0
KUM1 091611Z 25005KT 13/08 A3025 RMK A01 T01260076  RH  072%=      5-min Rain = 0
KUM1 091612Z 25005KT 13/08 A3025 RMK A01 T01260077  RH  072%=      5-min Rain = 0
KUM1 091613Z 25005KT 13/08 A3025 RMK A01 T01260077  RH  072%=      5-min Rain = 0
KUM1 091614Z 25006KT 13/08 A3025 RMK A01 T01280079  RH  072%=      5-min Rain = 0
KUM1 091615Z 25006KT 13/08 A3025 RMK A01 T01280076  RH  071%=      5-min Rain = 0
KUM1 091616Z 25006KT 13/08 A3025 RMK A01 T01280078  RH  071%=      5-min Rain = 0
KUM1 091617Z 25005KT 13/08 A3025 RMK A01 T01290080  RH  072%=      5-min Rain = 0
KUM1 091618Z 25005KT 13/08 A3025 RMK A01 T01320080  RH  071%=      5-min Rain = 0
KUM1 091619Z 24004KT 13/08 A3025 RMK A01 T01320078  RH  069%=      5-min Rain = 0
KUM1 091620Z 24005KT 13/08 A3025 RMK A01 T01330077  RH  069%=      5-min Rain = 0
KUM1 091621Z 25005KT 13/08 A3025 RMK A01 T01330077  RH  069%=      5-min Rain = 0
KUM1 091622Z 25004KT 13/08 A3025 RMK A01 T01330078  RH  069%=      5-min Rain = 0
KUM1 091623Z 25004KT 14/08 A3025 RMK A01 T01350081  RH  070%=      5-min Rain = 0
KUM1 091624Z 25005KT 14/08 A3025 RMK A01 T01370078  RH  068%=      5-min Rain = 0
KUM1 091625Z 26005KT 14/08 A3025 RMK A01 T01370077  RH  067%=      5-min Rain = 0
KUM1 091626Z 24004KT 14/08 A3025 RMK A01 T01380082  RH  069%=      5-min Rain = 0
KUM1 091627Z 25004KT 14/08 A3025 RMK A01 T01400084  RH  069%=      5-min Rain = 0
KUM1 091628Z 25005KT 14/08 A3025 RMK A01 T01410078  RH  066%=      5-min Rain = 0
KUM1 091629Z 25005KT 14/08 A3025 RMK A01 T01420077  RH  065%=      5-min Rain = 0
KUM1 091630Z 24004KT 14/08 A3025 RMK A01 T01430077  RH  065%=      5-min Rain = 0
KUM1 091631Z 26005KT 14/07 A3025 RMK A01 T01430074  RH  063%=      5-min Rain = 0
KUM1 091632Z 26003KT 14/07 A3025 RMK A01 T01440073  RH  062%=      5-min Rain = 0
KUM1 091633Z 27004KT 14/08 A3025 RMK A01 T01430075  RH  063%=      5-min Rain = 0
KUM1 091634Z 26004KT 14/07 A3025 RMK A01 T01440073  RH  062%=      5-min Rain = 0
KUM1 091635Z 26004KT 15/07 A3025 RMK A01 T01450072  RH  062%=      5-min Rain = 0
KUM1 091636Z 26005KT 15/07 A3025 RMK A01 T01460071  RH  061%=      5-min Rain = 0
KUM1 091637Z 25004KT 15/07 A3025 RMK A01 T01470069  RH  060%=      5-min Rain = 0
KUM1 091638Z 24004KT 15/07 A3025 RMK A01 T01480072  RH  060%=      5-min Rain = 0
KUM1 091639Z 26004KT 15/08 A3025 RMK A01 T01490075  RH  061%=      5-min Rain = 0
KUM1 091640Z 24004KT 15/08 A3025 RMK A01 T01490075  RH  061%=      5-min Rain = 0
KUM1 091641Z 24003KT 15/08 A3025 RMK A01 T01500079  RH  063%=      5-min Rain = 0
KUM1 091642Z 24004KT 15/08 A3025 RMK A01 T01510081  RH  063%=      5-min Rain = 0
KUM1 091643Z 23003KT 15/08 A3025 RMK A01 T01530083  RH  063%=      5-min Rain = 0
KUM1 091644Z 24004KT 15/08 A3025 RMK A01 T01540083  RH  063%=      5-min Rain = 0
KUM1 091645Z 24004KT 15/08 A3025 RMK A01 T01540081  RH  062%=      5-min Rain = 0
KUM1 091646Z 25005KT 15/08 A3025 RMK A01 T01540081  RH  061%=      5-min Rain = 0
KUM1 091647Z 26004KT 16/08 A3025 RMK A01 T01560079  RH  060%=      5-min Rain = 0
KUM1 091648Z 23004KT 16/08 A3025 RMK A01 T01570082  RH  061%=      5-min Rain = 0
KUM1 091649Z 23005KT 16/08 A3025 RMK A01 T01570080  RH  060%=      5-min Rain = 0
KUM1 091650Z 23005KT 16/08 A3025 RMK A01 T01580079  RH  059%=      5-min Rain = 0
KUM1 091651Z 23003KT 16/08 A3024 RMK A01 T01590079  RH  059%=      5-min Rain = 0
KUM1 091652Z 24003KT 16/08 A3024 RMK A01 T01590079  RH  059%=      5-min Rain = 0
KUM1 091653Z 24003KT 16/08 A3024 RMK A01 T01610079  RH  058%=      5-min Rain = 0
KUM1 091654Z 24003KT 16/07 A3024 RMK A01 T01610074  RH  056%=      5-min Rain = 0
KUM1 091655Z 24002KT 16/08 A3024 RMK A01 T01620075  RH  057%=      5-min Rain = 0
KUM1 091656Z 22004KT 16/08 A3024 RMK A01 T01620076  RH  057%=      5-min Rain = 0
KUM1 091657Z 23004KT 16/08 A3024 RMK A01 T01630077  RH  057%=      5-min Rain = 0
KUM1 091658Z 24004KT 16/08 A3024 RMK A01 T01640078  RH  057%=      5-min Rain = 0
KUM1 091659Z 24004KT 16/08 A3024 RMK A01 T01640076  RH  056%=      5-min Rain = 0
KUM1 091700Z 24003KT 17/07 A3024 RMK A01 T01660074  RH  055%=      5-min Rain = 0
KUM1 091701Z 24003KT 17/08 A3024 RMK A01 T01660077  RH  055%=      5-min Rain = 0
KUM1 091702Z 24004KT 17/07 A3024 RMK A01 T01680072  RH  053%=      5-min Rain = 0
KUM1 091703Z 24003KT 17/07 A3024 RMK A01 T01690065  RH  050%=      5-min Rain = 0
KUM1 091704Z 22003KT 17/06 A3024 RMK A01 T01700063  RH  050%=      5-min Rain = 0
KUM1 091705Z 24005KT 17/07 A3024 RMK A01 T01710065  RH  050%=      5-min Rain = 0
KUM1 091706Z 24004KT 17/07 A3024 RMK A01 T01740066  RH  049%=      5-min Rain = 0
KUM1 091707Z 24003KT 17/06 A3024 RMK A01 T01740063  RH  048%=      5-min Rain = 0
KUM1 091708Z 22003KT 17/06 A3024 RMK A01 T01740058  RH  047%=      5-min Rain = 0
KUM1 091709Z 24005KT 17/06 A3024 RMK A01 T01740058  RH  046%=      5-min Rain = 0
KUM1 091710Z 25004KT 18/05 A3024 RMK A01 T01760052  RH  044%=      5-min Rain = 0
KUM1 091711Z 26005KT 18/05 A3024 RMK A01 T01750053  RH  044%=      5-min Rain = 0
KUM1 091712Z 25004KT 18/06 A3024 RMK A01 T01750056  RH  046%=      5-min Rain = 0
KUM1 091713Z 23004KT 17/06 A3024 RMK A01 T01740055  RH  045%=      5-min Rain = 0
KUM1 091714Z 24003KT 17/05 A3024 RMK A01 T01740054  RH  045%=      5-min Rain = 0
KUM1 091715Z 26004KT 18/06 A3024 RMK A01 T01750056  RH  045%=      5-min Rain = 0
KUM1 091716Z 24005KT 18/07 A3024 RMK A01 T01790070  RH  049%=      5-min Rain = 0
KUM1 091717Z 23004KT 18/07 A3024 RMK A01 T01800067  RH  047%=      5-min Rain = 0
KUM1 091718Z 24003KT 18/07 A3024 RMK A01 T01810066  RH  047%=      5-min Rain = 0
KUM1 091719Z 23004KT 18/07 A3024 RMK A01 T01810065  RH  047%=      5-min Rain = 0
KUM1 091720Z 24003KT 18/06 A3024 RMK A01 T01800061  RH  046%=      5-min Rain = 0
KUM1 091721Z 23004KT 18/07 A3024 RMK A01 T01800065  RH  047%=      5-min Rain = 0
KUM1 091722Z 21003KT 18/07 A3024 RMK A01 T01800065  RH  047%=      5-min Rain = 0
KUM1 091723Z 22003KT 18/07 A3024 RMK A01 T01790065  RH  047%=      5-min Rain = 0
KUM1 091724Z 26004KT 18/06 A3024 RMK A01 T01790058  RH  045%=      5-min Rain = 0
KUM1 091725Z 25004KT 18/06 A3024 RMK A01 T01800062  RH  046%=      5-min Rain = 0
KUM1 091726Z 25004KT 18/06 A3024 RMK A01 T01810064  RH  046%=      5-min Rain = 0
KUM1 091727Z 25005KT 18/06 A3023 RMK A01 T01820063  RH  046%=      5-min Rain = 0
KUM1 091728Z 22003KT 18/07 A3023 RMK A01 T01830065  RH  046%=      5-min Rain = 0
KUM1 091729Z 22004KT 19/07 A3023 RMK A01 T01850066  RH  046%=      5-min Rain = 0
KUM1 091730Z 21004KT 19/06 A3023 RMK A01 T01870062  RH  044%=      5-min Rain = 0
KUM1 091731Z 23005KT 19/06 A3023 RMK A01 T01880056  RH  042%=      5-min Rain = 0
KUM1 091732Z 21004KT 19/05 A3023 RMK A01 T01880047  RH  040%=      5-min Rain = 0
KUM1 091733Z 22006KT 19/04 A3023 RMK A01 T01880042  RH  038%=      5-min Rain = 0
KUM1 091734Z 21003KT 19/04 A3023 RMK A01 T01870039  RH  037%=      5-min Rain = 0
KUM1 091735Z 22005KT 19/04 A3023 RMK A01 T01880038  RH  037%=      5-min Rain = 0
KUM1 091736Z 23005KT 19/03 A3023 RMK A01 T01900028  RH  034%=      5-min Rain = 0
KUM1 091737Z 23004KT 19/04 A3023 RMK A01 T01890037  RH  036%=      5-min Rain = 0
KUM1 091738Z 23005KT 19/04 A3023 RMK A01 T01900043  RH  038%=      5-min Rain = 0
KUM1 091739Z 23005KT 19/04 A3023 RMK A01 T01910039  RH  036%=      5-min Rain = 0
KUM1 091740Z 24004KT 19/04 A3023 RMK A01 T01900038  RH  036%=      5-min Rain = 0
KUM1 091741Z 21005KT 19/04 A3023 RMK A01 T01900039  RH  037%=      5-min Rain = 0
KUM1 091742Z 21005KT 19/03 A3023 RMK A01 T01910027  RH  034%=      5-min Rain = 0
KUM1 091743Z 23004KT 19/03 A3023 RMK A01 T01910032  RH  035%=      5-min Rain = 0
KUM1 091744Z 21004KT 19/03 A3023 RMK A01 T01930032  RH  034%=      5-min Rain = 0
KUM1 091745Z 22007KT 20/02 A3023 RMK A01 T01950021  RH  031%=      5-min Rain = 0
KUM1 091746Z 22004KT 19/01 A3023 RMK A01 T01930014  RH  030%=      5-min Rain = 0
KUM1 091747Z 23006KT 19/02 A3023 RMK A01 T01920019  RH  031%=      5-min Rain = 0
KUM1 091748Z 22006KT 19/02 A3023 RMK A01 T01930021  RH  032%=      5-min Rain = 0
KUM1 091749Z 23005KT 19/02 A3023 RMK A01 T01930020  RH  031%=      5-min Rain = 0
KUM1 091750Z 24006KT 19/02 A3023 RMK A01 T01930020  RH  031%=      5-min Rain = 0
KUM1 091751Z 24006KT 19/02 A3023 RMK A01 T01930024  RH  033%=      5-min Rain = 0
KUM1 091752Z 22004KT 19/03 A3023 RMK A01 T01920026  RH  033%=      5-min Rain = 0
KUM1 091753Z 24004KT 19/03 A3023 RMK A01 T01930030  RH  034%=      5-min Rain = 0
KUM1 091754Z 24006KT 19/03 A3023 RMK A01 T01940034  RH  035%=      5-min Rain = 0
KUM1 091755Z 22006KT 20/03 A3023 RMK A01 T01950034  RH  034%=      5-min Rain = 0
KUM1 091756Z 22004KT 20/03 A3023 RMK A01 T01950034  RH  034%=      5-min Rain = 0
KUM1 091757Z 21004KT 20/04 A3023 RMK A01 T01950038  RH  035%=      5-min Rain = 0
KUM1 091758Z 22004KT 20/04 A3022 RMK A01 T01950042  RH  036%=      5-min Rain = 0
KUM1 091759Z 24004KT 20/04 A3022 RMK A01 T01960041  RH  036%=      5-min Rain = 0
KUM1 091800Z 25005KT 20/04 A3022 RMK A01 T01960042  RH  036%=      5-min Rain = 0
KUM1 091801Z 24006KT 20/04 A3022 RMK A01 T01960041  RH  036%=      5-min Rain = 0
KUM1 091802Z 24004KT 20/04 A3022 RMK A01 T01960040  RH  036%=      5-min Rain = 0
KUM1 091803Z 25004KT 20/04 A3022 RMK A01 T01960040  RH  036%=      5-min Rain = 0
KUM1 091804Z 24004KT 20/04 A3022 RMK A01 T01970040  RH  035%=      5-min Rain = 0
KUM1 091805Z 22004KT 20/05 A3022 RMK A01 T01970045  RH  037%=      5-min Rain = 0
KUM1 091806Z 22005KT 20/04 A3022 RMK A01 T01990042  RH  035%=      5-min Rain = 0
KUM1 091807Z 23004KT 20/04 A3022 RMK A01 T02000037  RH  034%=      5-min Rain = 0
KUM1 091808Z 22005KT 20/04 A3022 RMK A01 T02000036  RH  034%=      5-min Rain = 0
KUM1 091809Z 24006KT 20/04 A3022 RMK A01 T02010038  RH  034%=      5-min Rain = 0
KUM1 091810Z 22005KT 20/04 A3022 RMK A01 T02020035  RH  033%=      5-min Rain = 0
KUM1 091811Z 24006KT 20/04 A3022 RMK A01 T02020038  RH  034%=      5-min Rain = 0
KUM1 091812Z 24005KT 20/03 A3022 RMK A01 T02030029  RH  032%=      5-min Rain = 0
KUM1 091813Z 23005KT 20/03 A3022 RMK A01 T02020031  RH  032%=      5-min Rain = 0
KUM1 091814Z 23005KT 20/03 A3022 RMK A01 T02020027  RH  031%=      5-min Rain = 0
KUM1 091815Z 22004KT 20/03 A3022 RMK A01 T02000025  RH  031%=      5-min Rain = 0
KUM1 091816Z 22007KT 20/02 A3022 RMK A01 T02010023  RH  031%=      5-min Rain = 0
KUM1 091817Z 22006KT 20/01 A3022 RMK A01 T02020012  RH  028%=      5-min Rain = 0
KUM1 091818Z 22006KT 20/02 A3021 RMK A01 T02020016  RH  029%=      5-min Rain = 0
KUM1 091819Z 24004KT 20/03 A3021 RMK A01 T02020025  RH  031%=      5-min Rain = 0
KUM1 091820Z 22005KT 20/03 A3021 RMK A01 T02040028  RH  031%=      5-min Rain = 0
KUM1 091821Z 21006KT 21/03 A3021 RMK A01 T02060029  RH  031%=      5-min Rain = 0
KUM1 091822Z 25006KT 21/02 A3021 RMK A01 T02080021  RH  029%=      5-min Rain = 0
KUM1 091823Z 24005KT 21/02 A3021 RMK A01 T02070015  RH  028%=      5-min Rain = 0
KUM1 091824Z 23006KT 21/02 A3021 RMK A01 T02080020  RH  029%=      5-min Rain = 0
KUM1 091825Z 25007KT 21/02 A3021 RMK A01 T02090022  RH  029%=      5-min Rain = 0
KUM1 091826Z 23007KT 21/02 A3021 RMK A01 T02090022  RH  029%=      5-min Rain = 0
KUM1 091827Z 24006KT 21/02 A302 RMK A01 T02090021  RH  029%=      5-min Rain = 0
KUM1 091828Z 23007KT 21/02 A302 RMK A01 T02090021  RH  029%=      5-min Rain = 0
KUM1 091829Z 22008KT 21/02 A302 RMK A01 T02080018  RH  028%=      5-min Rain = 0
KUM1 091830Z 24006KT 21/02 A302 RMK A01 T02070024  RH  030%=      5-min Rain = 0
KUM1 091831Z 23006KT 21/03 A302 RMK A01 T02090028  RH  030%=      5-min Rain = 0
KUM1 091832Z 23008KT 21/03 A302 RMK A01 T02100027  RH  030%=      5-min Rain = 0
KUM1 091833Z 23006KT 21/02 A302 RMK A01 T02100022  RH  029%=      5-min Rain = 0
KUM1 091834Z 23005KT 21/02 A302 RMK A01 T02090023  RH  029%=      5-min Rain = 0
KUM1 091835Z 24008KT 21/02 A302 RMK A01 T02080024  RH  030%=      5-min Rain = 0
KUM1 091836Z 23009KT 21/03 A302 RMK A01 T02090026  RH  030%=      5-min Rain = 0
KUM1 091837Z 21008KT 21/02 A302 RMK A01 T02100024  RH  029%=      5-min Rain = 0
KUM1 091838Z 21006KT 21/02 A302 RMK A01 T02100021  RH  029%=      5-min Rain = 0
KUM1 091839Z 23005KT 21/03 A302 RMK A01 T02090026  RH  030%=      5-min Rain = 0
KUM1 091840Z 23005KT 21/02 A302 RMK A01 T02100024  RH  029%=      5-min Rain = 0
KUM1 091841Z 23006KT 21/02 A302 RMK A01 T02100024  RH  029%=      5-min Rain = 0
KUM1 091842Z 23006KT 21/03 A3019 RMK A01 T02100026  RH  030%=      5-min Rain = 0
KUM1 091843Z 23007KT 21/03 A3019 RMK A01 T02110025  RH  029%=      5-min Rain = 0
KUM1 091844Z 22008KT 21/03 A3019 RMK A01 T02120028  RH  030%=      5-min Rain = 0
KUM1 091845Z 20007KT 21/02 A3019 RMK A01 T02140023  RH  028%=      5-min Rain = 0
KUM1 091846Z 21006KT 21/02 A3019 RMK A01 T02130019  RH  028%=      5-min Rain = 0
KUM1 091847Z 22007KT 21/02 A3019 RMK A01 T02130021  RH  028%=      5-min Rain = 0
KUM1 091848Z 22004KT 21/02 A3019 RMK A01 T02140023  RH  028%=      5-min Rain = 0
KUM1 091849Z 23004KT 21/03 A3019 RMK A01 T02130025  RH  029%=      5-min Rain = 0
KUM1 091850Z 23004KT 21/02 A3019 RMK A01 T02130015  RH  027%=      5-min Rain = 0
KUM1 091851Z 22005KT 21/02 A3019 RMK A01 T02130018  RH  028%=      5-min Rain = 0
KUM1 091852Z 22004KT 21/02 A3019 RMK A01 T02130019  RH  028%=      5-min Rain = 0
KUM1 091853Z 20005KT 21/02 A3019 RMK A01 T02130021  RH  028%=      5-min Rain = 0
KUM1 091854Z 22006KT 22/03 A3019 RMK A01 T02150028  RH  029%=      5-min Rain = 0
KUM1 091855Z 22007KT 22/02 A3019 RMK A01 T02160021  RH  028%=      5-min Rain = 0
KUM1 091856Z 23006KT 22/02 A3019 RMK A01 T02160019  RH  027%=      5-min Rain = 0
KUM1 091857Z 20006KT 22/01 A3019 RMK A01 T02160010  RH  025%=      5-min Rain = 0
KUM1 091858Z 20007KT 22/M01 A3019 RMK A01 T02161011  RH  022%=      5-min Rain = 0
KUM1 091859Z 20007KT 22/M01 A3019 RMK A01 T02161014  RH  021%=      5-min Rain = 0
KUM1 091900Z 20006KT 22/M02 A3018 RMK A01 T02171015  RH  021%=      5-min Rain = 0
KUM1 091901Z 21005KT 22/M01 A3018 RMK A01 T02171008  RH  022%=      5-min Rain = 0
KUM1 091902Z 22004KT 22/02 A3018 RMK A01 T02190017  RH  026%=      5-min Rain = 0
KUM1 091903Z 24005G11KT 22/02 A3018 RMK A01 T02220018  RH  026%=      5-min Rain = 0
KUM1 091904Z 22006KT 22/02 A3018 RMK A01 T02220016  RH  026%=      5-min Rain = 0
KUM1 091905Z 25004KT 22/01 A3018 RMK A01 T02200010  RH  025%=      5-min Rain = 0
KUM1 091906Z 24003KT 22/01 A3018 RMK A01 T02190006  RH  024%=      5-min Rain = 0
KUM1 091907Z 22003KT 22/01 A3018 RMK A01 T02170008  RH  025%=      5-min Rain = 0
KUM1 091908Z 21006KT 22/01 A3018 RMK A01 T02200008  RH  025%=      5-min Rain = 0
KUM1 091909Z 19006KT 22/01 A3018 RMK A01 T02210008  RH  024%=      5-min Rain = 0
KUM1 091910Z 21005KT 22/00 A3018 RMK A01 T02220002  RH  023%=      5-min Rain = 0
KUM1 091911Z 22008KT 22/00 A3018 RMK A01 T022100-0  RH  023%=      5-min Rain = 0
KUM1 091912Z 22006KT 22/M01 A3018 RMK A01 T02221005  RH  022%=      5-min Rain = 0
KUM1 091913Z 24006KT 22/M01 A3018 RMK A01 T02211010  RH  021%=      5-min Rain = 0
KUM1 091914Z 22007KT 22/M01 A3018 RMK A01 T02201011  RH  021%=      5-min Rain = 0
KUM1 091915Z 21008KT 22/M01 A3018 RMK A01 T02211008  RH  022%=      5-min Rain = 0
KUM1 091916Z 21006KT 22/M01 A3018 RMK A01 T02221009  RH  021%=      5-min Rain = 0
KUM1 091917Z 23005KT 22/M01 A3018 RMK A01 T02211010  RH  021%=      5-min Rain = 0
KUM1 091918Z 26002KT 22/M01 A3017 RMK A01 T02191007  RH  022%=      5-min Rain = 0
KUM1 091919Z 26002KT 22/M00 A3017 RMK A01 T02191004  RH  023%=      5-min Rain = 0
KUM1 091920Z 25002KT 22/M01 A3017 RMK A01 T02191007  RH  022%=      5-min Rain = 0
KUM1 091921Z 19004KT 22/M00 A3017 RMK A01 T02191002  RH  023%=      5-min Rain = 0
KUM1 091922Z 22005KT 22/00 A3017 RMK A01 T02220004  RH  023%=      5-min Rain = 0
KUM1 091923Z 21006KT 23/00 A3017 RMK A01 T02250004  RH  023%=      5-min Rain = 0
KUM1 091924Z 20005KT 23/00 A3017 RMK A01 T02280001  RH  022%=      5-min Rain = 0
KUM1 091925Z 22005KT 23/M01 A3017 RMK A01 T02271005  RH  021%=      5-min Rain = 0
KUM1 091926Z 24007KT 23/M01 A3017 RMK A01 T02261008  RH  021%=      5-min Rain = 0
KUM1 091927Z 22005KT 23/M00 A3017 RMK A01 T02261003  RH  022%=      5-min Rain = 0
KUM1 091928Z 22005KT 23/M01 A3017 RMK A01 T02271005  RH  021%=      5-min Rain = 0
KUM1 091929Z 24006KT 23/M01 A3016 RMK A01 T02261008  RH  021%=      5-min Rain = 0
KUM1 091930Z 23005KT 23/M00 A3016 RMK A01 T02251003  RH  022%=      5-min Rain = 0
KUM1 091931Z 23004KT 23/00 A3016 RMK A01 T022500-0  RH  022%=      5-min Rain = 0
KUM1 091932Z 23004KT 23/M00 A3016 RMK A01 T02251003  RH  022%=      5-min Rain = 0
KUM1 091933Z 25004KT 22/M01 A3016 RMK A01 T02241006  RH  022%=      5-min Rain = 0
KUM1 091934Z 23007KT 22/M01 A3016 RMK A01 T02241006  RH  022%=      5-min Rain = 0
KUM1 091935Z 23007KT 23/M01 A3016 RMK A01 T02251012  RH  021%=      5-min Rain = 0
KUM1 091936Z 24007KT 23/M01 A3016 RMK A01 T02251010  RH  021%=      5-min Rain = 0
KUM1 091937Z 23006KT 23/M01 A3016 RMK A01 T02251007  RH  021%=      5-min Rain = 0
KUM1 091938Z 22006KT 23/M00 A3016 RMK A01 T02271001  RH  022%=      5-min Rain = 0
KUM1 091939Z 25005KT 23/M01 A3016 RMK A01 T02281005  RH  021%=      5-min Rain = 0
KUM1 091940Z 25005KT 23/M01 A3016 RMK A01 T02291007  RH  021%=      5-min Rain = 0
KUM1 091941Z 24005KT 23/M01 A3016 RMK A01 T02291013  RH  020%=      5-min Rain = 0
KUM1 091942Z 24006KT 23/M01 A3016 RMK A01 T02281010  RH  020%=      5-min Rain = 0
KUM1 091943Z 24004KT 23/M01 A3016 RMK A01 T02271013  RH  020%=      5-min Rain = 0
KUM1 091944Z 22006KT 23/M01 A3016 RMK A01 T02261007  RH  021%=      5-min Rain = 0
KUM1 091945Z 23008KT 23/00 A3015 RMK A01 T022700-0  RH  022%=      5-min Rain = 0
KUM1 091946Z 24006KT 23/00 A3015 RMK A01 T02280001  RH  022%=      5-min Rain = 0
KUM1 091947Z 23005KT 23/M00 A3015 RMK A01 T02281001  RH  022%=      5-min Rain = 0
KUM1 091948Z 24006KT 23/M00 A3015 RMK A01 T02271004  RH  021%=      5-min Rain = 0
KUM1 091949Z 26006KT 23/M01 A3015 RMK A01 T02261009  RH  021%=      5-min Rain = 0
KUM1 091950Z 24009KT 23/M01 A3015 RMK A01 T02251008  RH  021%=      5-min Rain = 0
KUM1 091951Z 23009KT 23/M00 A3015 RMK A01 T02251004  RH  022%=      5-min Rain = 0
KUM1 091952Z 23008KT 23/00 A3015 RMK A01 T02270004  RH  023%=      5-min Rain = 0
KUM1 091953Z 24008KT 23/01 A3015 RMK A01 T02300005  RH  023%=      5-min Rain = 0
KUM1 091954Z 24007KT 23/00 A3015 RMK A01 T02310003  RH  022%=      5-min Rain = 0
KUM1 091955Z 22006KT 23/M00 A3015 RMK A01 T02311002  RH  021%=      5-min Rain = 0
KUM1 091956Z 21007KT 23/M00 A3015 RMK A01 T02301003  RH  021%=      5-min Rain = 0
KUM1 091957Z 20007KT 23/M01 A3015 RMK A01 T02301010  RH  020%=      5-min Rain = 0
KUM1 091958Z 20010KT 23/M02 A3015 RMK A01 T02311015  RH  019%=      5-min Rain = 0
KUM1 091959Z 19009KT 23/M01 A3015 RMK A01 T02341011  RH  020%=      5-min Rain = 0
KUM1 092000Z 20007KT 23/M02 A3015 RMK A01 T02331017  RH  019%=      5-min Rain = 0
KUM1 092001Z 20007KT 23/M02 A3015 RMK A01 T02321017  RH  019%=      5-min Rain = 0
KUM1 092002Z 21007KT 23/M01 A3015 RMK A01 T02311014  RH  020%=      5-min Rain = 0
KUM1 092003Z 20007KT 23/M01 A3015 RMK A01 T02321007  RH  021%=      5-min Rain = 0
KUM1 092004Z 21009KT 23/M02 A3014 RMK A01 T02331015  RH  019%=      5-min Rain = 0
KUM1 092005Z 21008KT 24/M03 A3014 RMK A01 T02351025  RH  018%=      5-min Rain = 0
KUM1 092006Z 23009KT 23/M02 A3014 RMK A01 T02341021  RH  018%=      5-min Rain = 0
KUM1 092007Z 20008KT 23/M02 A3014 RMK A01 T02321015  RH  019%=      5-min Rain = 0
KUM1 092008Z 19007KT 23/M01 A3014 RMK A01 T02311005  RH  021%=      5-min Rain = 0
KUM1 092009Z 20006KT 23/M01 A3014 RMK A01 T02291008  RH  021%=      5-min Rain = 0
KUM1 092010Z 20006KT 23/M02 A3014 RMK A01 T02281023  RH  019%=      5-min Rain = 0
KUM1 092011Z 22010KT 23/M01 A3014 RMK A01 T02301007  RH  021%=      5-min Rain = 0
KUM1 092012Z 22008KT 23/M00 A3014 RMK A01 T02331001  RH  021%=      5-min Rain = 0
KUM1 092013Z 20010KT 24/M00 A3014 RMK A01 T02351001  RH  021%=      5-min Rain = 0
KUM1 092014Z 21008KT 23/M01 A3014 RMK A01 T02341007  RH  020%=      5-min Rain = 0
KUM1 092015Z 20005KT 23/M01 A3014 RMK A01 T02311011  RH  020%=      5-min Rain = 0
KUM1 092016Z 21008KT 23/M01 A3014 RMK A01 T02311006  RH  021%=      5-min Rain = 0
KUM1 092017Z 23008KT 23/M01 A3014 RMK A01 T02321012  RH  020%=      5-min Rain = 0
KUM1 092018Z 22008KT 23/M01 A3014 RMK A01 T02301012  RH  020%=      5-min Rain = 0
KUM1 092019Z 22008KT 23/M02 A3014 RMK A01 T02291015  RH  020%=      5-min Rain = 0
KUM1 092020Z 20007KT 23/M01 A3014 RMK A01 T02301012  RH  020%=      5-min Rain = 0
KUM1 092021Z 20007KT 23/M00 A3014 RMK A01 T02331001  RH  021%=      5-min Rain = 0
KUM1 092022Z 22008KT 23/M01 A3014 RMK A01 T02341007  RH  020%=      5-min Rain = 0
KUM1 092023Z 24008KT 23/M03 A3014 RMK A01 T02321025  RH  018%=      5-min Rain = 0
KUM1 092024Z 22010KT 23/M02 A3014 RMK A01 T02311018  RH  019%=      5-min Rain = 0
KUM1 092025Z 21012KT 23/M00 A3014 RMK A01 T02321004  RH  021%=      5-min Rain = 0
KUM1 092026Z 22009KT 23/M00 A3014 RMK A01 T02321003  RH  021%=      5-min Rain = 0
KUM1 092027Z 22011KT 23/M01 A3014 RMK A01 T02321006  RH  021%=      5-min Rain = 0
KUM1 092028Z 21010KT 23/M01 A3014 RMK A01 T02331014  RH  019%=      5-min Rain = 0
KUM1 092029Z 21008KT 23/M02 A3014 RMK A01 T02321018  RH  019%=      5-min Rain = 0
KUM1 092030Z 21007KT 23/M02 A3014 RMK A01 T02321016  RH  019%=      5-min Rain = 0
KUM1 092031Z 21007KT 23/M02 A3014 RMK A01 T02321017  RH  019%=      5-min Rain = 0
KUM1 092032Z 22006KT 23/M02 A3014 RMK A01 T02311015  RH  019%=      5-min Rain = 0
KUM1 092033Z 23008KT 23/M01 A3014 RMK A01 T02311009  RH  020%=      5-min Rain = 0
KUM1 092034Z 23009KT 23/M01 A3014 RMK A01 T02331006  RH  020%=      5-min Rain = 0
KUM1 092035Z 24009KT 23/M01 A3014 RMK A01 T02331006  RH  020%=      5-min Rain = 0
KUM1 092036Z 22009KT 23/M01 A3014 RMK A01 T02311005  RH  021%=      5-min Rain = 0
KUM1 092037Z 22010KT 23/M01 A3014 RMK A01 T02311012  RH  020%=      5-min Rain = 0
KUM1 092038Z 21008KT 23/M01 A3014 RMK A01 T02331010  RH  020%=      5-min Rain = 0
KUM1 092039Z 21009KT 23/M02 A3014 RMK A01 T02341021  RH  018%=      5-min Rain = 0
KUM1 092040Z 21007KT 23/M01 A3014 RMK A01 T02331009  RH  020%=      5-min Rain = 0
KUM1 092041Z 22008KT 23/M01 A3014 RMK A01 T02321005  RH  021%=      5-min Rain = 0
KUM1 092042Z 23008KT 23/M00 A3014 RMK A01 T02331002  RH  021%=      5-min Rain = 0
KUM1 092043Z 22006KT 23/M00 A3013 RMK A01 T02321002  RH  021%=      5-min Rain = 0
KUM1 092044Z 21007KT 23/00 A3013 RMK A01 T02320004  RH  022%=      5-min Rain = 0
KUM1 092045Z 20010KT 23/01 A3013 RMK A01 T02340005  RH  022%=      5-min Rain = 0
KUM1 092046Z 20011KT 23/M00 A3013 RMK A01 T02331004  RH  021%=      5-min Rain = 0
KUM1 092047Z 20011KT 23/M01 A3013 RMK A01 T02321006  RH  021%=      5-min Rain = 0
KUM1 092048Z 21008KT 23/M01 A3013 RMK A01 T02311012  RH  020%=      5-min Rain = 0
KUM1 092049Z 20009KT 23/M01 A3013 RMK A01 T02301006  RH  021%=      5-min Rain = 0
KUM1 092050Z 21007KT 23/M00 A3013 RMK A01 T02301001  RH  022%=      5-min Rain = 0
KUM1 092051Z 22006KT 23/M00 A3013 RMK A01 T02321003  RH  021%=      5-min Rain = 0
KUM1 092052Z 20007KT 23/M00 A3013 RMK A01 T02321001  RH  021%=      5-min Rain = 0
KUM1 092053Z 19007KT 23/00 A3013 RMK A01 T02310003  RH  022%=      5-min Rain = 0
KUM1 092054Z 20006KT 23/01 A3013 RMK A01 T02310006  RH  023%=      5-min Rain = 0
KUM1 092055Z 24007KT 23/01 A3013 RMK A01 T02320005  RH  022%=      5-min Rain = 0
KUM1 092056Z 22010KT 23/00 A3013 RMK A01 T02320000  RH  022%=      5-min Rain = 0
KUM1 092057Z 23009KT 23/00 A3013 RMK A01 T02320000  RH  021%=      5-min Rain = 0
KUM1 092058Z 21008KT 23/00 A3013 RMK A01 T02310000  RH  022%=      5-min Rain = 0
KUM1 092059Z 22009KT 23/00 A3013 RMK A01 T02320001  RH  022%=      5-min Rain = 0
KUM1 092100Z 22009KT 23/00 A3013 RMK A01 T02310000  RH  022%=      5-min Rain = 0
KUM1 092101Z 23008KT 23/01 A3013 RMK A01 T02310006  RH  023%=      5-min Rain = 0
KUM1 092102Z 22007KT 23/00 A3013 RMK A01 T02320004  RH  022%=      5-min Rain = 0
KUM1 092103Z 21009KT 23/01 A3013 RMK A01 T02320006  RH  022%=      5-min Rain = 0
KUM1 092104Z 23008KT 23/01 A3013 RMK A01 T02340013  RH  023%=      5-min Rain = 0
KUM1 092105Z 23010KT 23/00 A3013 RMK A01 T02340000  RH  021%=      5-min Rain = 0
KUM1 092106Z 23011KT 23/00 A3013 RMK A01 T023200-0  RH  022%=      5-min Rain = 0
KUM1 092107Z 22007KT 23/00 A3013 RMK A01 T023000-0  RH  022%=      5-min Rain = 0
KUM1 092108Z 22006KT 23/M01 A3013 RMK A01 T02301005  RH  021%=      5-min Rain = 0
KUM1 092109Z 21006KT 23/M00 A3013 RMK A01 T02301001  RH  022%=      5-min Rain = 0
KUM1 092110Z 21007KT 23/01 A3013 RMK A01 T02320007  RH  023%=      5-min Rain = 0
KUM1 092111Z 23007KT 23/00 A3013 RMK A01 T02330004  RH  022%=      5-min Rain = 0
KUM1 092112Z 24006KT 23/00 A3012 RMK A01 T02330001  RH  022%=      5-min Rain = 0
KUM1 092113Z 23007KT 23/01 A3012 RMK A01 T02320005  RH  022%=      5-min Rain = 0
KUM1 092114Z 20009KT 23/01 A3012 RMK A01 T02310011  RH  023%=      5-min Rain = 0
KUM1 092115Z 21010KT 23/02 A3012 RMK A01 T02320016  RH  024%=      5-min Rain = 0
KUM1 092116Z 23008KT 23/01 A3012 RMK A01 T02320007  RH  023%=      5-min Rain = 0
KUM1 092117Z 23008KT 23/00 A3012 RMK A01 T02320004  RH  022%=      5-min Rain = 0
KUM1 092118Z 22008KT 23/01 A3012 RMK A01 T02320006  RH  023%=      5-min Rain = 0
KUM1 092119Z 23009KT 23/00 A3012 RMK A01 T02310003  RH  022%=      5-min Rain = 0
KUM1 092120Z 22009KT 23/01 A3012 RMK A01 T02300005  RH  023%=      5-min Rain = 0
KUM1 092121Z 24007KT 23/00 A3012 RMK A01 T02290001  RH  022%=      5-min Rain = 0
KUM1 092122Z 23009KT 23/00 A3012 RMK A01 T02280004  RH  023%=      5-min Rain = 0
KUM1 092123Z 23011KT 23/00 A3012 RMK A01 T02300002  RH  022%=      5-min Rain = 0
KUM1 092124Z 23009KT 23/00 A3012 RMK A01 T02300002  RH  022%=      5-min Rain = 0
KUM1 092125Z 23008KT 23/00 A3012 RMK A01 T02310003  RH  022%=      5-min Rain = 0
KUM1 092126Z 23007KT 23/00 A3012 RMK A01 T02310002  RH  022%=      5-min Rain = 0
KUM1 092127Z 23005KT 23/00 A3012 RMK A01 T02300001  RH  022%=      5-min Rain = 0
KUM1 092128Z 22007KT 23/00 A3012 RMK A01 T02290003  RH  022%=      5-min Rain = 0
KUM1 092129Z 21010KT 23/01 A3012 RMK A01 T02300007  RH  023%=      5-min Rain = 0
KUM1 092130Z 21009KT 23/00 A3012 RMK A01 T02310001  RH  022%=      5-min Rain = 0
KUM1 092131Z 22009KT 23/00 A3012 RMK A01 T02320003  RH  022%=      5-min Rain = 0
KUM1 092132Z 20010KT 23/01 A3012 RMK A01 T02320007  RH  023%=      5-min Rain = 0
KUM1 092133Z 20010KT 23/01 A3012 RMK A01 T02320006  RH  023%=      5-min Rain = 0
KUM1 092134Z 20008KT 23/01 A3012 RMK A01 T02300011  RH  024%=      5-min Rain = 0
KUM1 092135Z 22007KT 23/01 A3012 RMK A01 T02310008  RH  023%=      5-min Rain = 0
KUM1 092136Z 21008KT 23/01 A3012 RMK A01 T02310007  RH  023%=      5-min Rain = 0
KUM1 092137Z 24007KT 23/00 A3012 RMK A01 T02320004  RH  022%=      5-min Rain = 0
KUM1 092138Z 24007KT 23/M01 A3012 RMK A01 T02331013  RH  019%=      5-min Rain = 0
KUM1 092139Z 23006KT 23/M02 A3012 RMK A01 T02331016  RH  019%=      5-min Rain = 0
KUM1 092140Z 22006KT 23/M02 A3011 RMK A01 T02331015  RH  019%=      5-min Rain = 0
KUM1 092141Z 22008KT 23/M01 A3011 RMK A01 T02331014  RH  019%=      5-min Rain = 0
KUM1 092142Z 22012KT 23/M02 A3011 RMK A01 T02331023  RH  018%=      5-min Rain = 0
KUM1 092143Z 23010KT 23/M03 A3011 RMK A01 T02321030  RH  017%=      5-min Rain = 0
KUM1 092144Z 22009KT 23/M03 A3011 RMK A01 T02301031  RH  017%=      5-min Rain = 0
KUM1 092145Z 23008KT 23/M03 A3011 RMK A01 T02301026  RH  018%=      5-min Rain = 0
KUM1 092146Z 23008KT 23/M03 A3011 RMK A01 T02311026  RH  018%=      5-min Rain = 0
KUM1 092147Z 23009KT 23/M03 A3011 RMK A01 T02321027  RH  018%=      5-min Rain = 0
KUM1 092148Z 23009KT 23/M03 A3011 RMK A01 T02321027  RH  018%=      5-min Rain = 0
KUM1 092149Z 23008KT 23/M02 A3011 RMK A01 T02311021  RH  019%=      5-min Rain = 0
KUM1 092150Z 22009KT 23/M02 A3011 RMK A01 T02311019  RH  019%=      5-min Rain = 0
KUM1 092151Z 23007KT 23/M02 A3011 RMK A01 T02311018  RH  019%=      5-min Rain = 0
KUM1 092152Z 23006KT 23/M02 A3011 RMK A01 T02311019  RH  019%=      5-min Rain = 0
KUM1 092153Z 24008KT 23/M02 A3011 RMK A01 T02311019  RH  019%=      5-min Rain = 0
KUM1 092154Z 23010KT 23/M02 A3011 RMK A01 T02301020  RH  019%=      5-min Rain = 0
KUM1 092155Z 23008KT 23/M02 A3011 RMK A01 T02291022  RH  019%=      5-min Rain = 0
KUM1 092156Z 23009KT 23/M02 A3011 RMK A01 T02291020  RH  019%=      5-min Rain = 0
KUM1 092157Z 23011KT 23/M02 A3011 RMK A01 T02291018  RH  019%=      5-min Rain = 0
KUM1 092158Z 22010KT 23/M02 A3011 RMK A01 T02291017  RH  019%=      5-min Rain = 0
KUM1 092159Z 23009KT 23/M02 A3011 RMK A01 T02291017  RH  019%=      5-min Rain = 0
KUM1 092200Z 23008KT 23/M02 A3011 RMK A01 T02291016  RH  019%=      5-min Rain = 0
KUM1 092201Z 22009KT 23/M02 A3011 RMK A01 T02291017  RH  019%=      5-min Rain = 0
KUM1 092202Z 22009KT 23/M02 A3011 RMK A01 T02291016  RH  020%=      5-min Rain = 0
KUM1 092203Z 22009KT 23/M02 A3011 RMK A01 T02281016  RH  019%=      5-min Rain = 0
KUM1 092204Z 23007KT 23/M01 A3011 RMK A01 T02281011  RH  020%=      5-min Rain = 0
KUM1 092205Z 21008KT 23/M01 A3011 RMK A01 T02291014  RH  020%=      5-min Rain = 0
KUM1 092206Z 21007KT 23/M01 A3011 RMK A01 T02291007  RH  021%=      5-min Rain = 0
KUM1 092207Z 22011KT 23/00 A3011 RMK A01 T02300001  RH  022%=      5-min Rain = 0
KUM1 092208Z 22010KT 23/00 A3011 RMK A01 T023000-0  RH  022%=      5-min Rain = 0
KUM1 092209Z 23008KT 23/M00 A3011 RMK A01 T02291002  RH  022%=      5-min Rain = 0
KUM1 092210Z 22009KT 23/M01 A3011 RMK A01 T02291005  RH  021%=      5-min Rain = 0
KUM1 092211Z 23007KT 23/M01 A3011 RMK A01 T02281008  RH  021%=      5-min Rain = 0
KUM1 092212Z 23007KT 23/M01 A3011 RMK A01 T02281009  RH  021%=      5-min Rain = 0
KUM1 092213Z 22008KT 23/M01 A3011 RMK A01 T02281011  RH  020%=      5-min Rain = 0
KUM1 092214Z 23007KT 23/M01 A3011 RMK A01 T02281013  RH  020%=      5-min Rain = 0
KUM1 092215Z 22009KT 23/M01 A3011 RMK A01 T02281009  RH  021%=      5-min Rain = 0
KUM1 092216Z 22009KT 23/M01 A3011 RMK A01 T02281005  RH  021%=      5-min Rain = 0
KUM1 092217Z 22011KT 23/M01 A3011 RMK A01 T02281009  RH  021%=      5-min Rain = 0
KUM1 092218Z 23009KT 23/M01 A3011 RMK A01 T02271012  RH  020%=      5-min Rain = 0
KUM1 092219Z 22009KT 23/M01 A3011 RMK A01 T02271012  RH  020%=      5-min Rain = 0
KUM1 092220Z 22010KT 23/M02 A3011 RMK A01 T02271017  RH  020%=      5-min Rain = 0
KUM1 092221Z 23009KT 23/M02 A3011 RMK A01 T02271021  RH  019%=      5-min Rain = 0
KUM1 092222Z 23008KT 23/M02 A3011 RMK A01 T02261020  RH  019%=      5-min Rain = 0
KUM1 092223Z 23010KT 23/M02 A3011 RMK A01 T02261021  RH  019%=      5-min Rain = 0
KUM1 092224Z 23011KT 23/M03 A3011 RMK A01 T02261029  RH  018%=      5-min Rain = 0
KUM1 092225Z 22009KT 23/M03 A3011 RMK A01 T02251030  RH  018%=      5-min Rain = 0
KUM1 092226Z 22009KT 23/M03 A301 RMK A01 T02251026  RH  019%=      5-min Rain = 0
KUM1 092227Z 22010KT 23/M02 A301 RMK A01 T02251024  RH  019%=      5-min Rain = 0
KUM1 092228Z 22010KT 23/M02 A301 RMK A01 T02251021  RH  019%=      5-min Rain = 0
KUM1 092229Z 22011KT 22/M03 A301 RMK A01 T02241025  RH  019%=      5-min Rain = 0
KUM1 092230Z 22011KT 22/M02 A301 RMK A01 T02241023  RH  019%=      5-min Rain = 0
KUM1 092231Z 22010KT 22/M02 A301 RMK A01 T02231024  RH  019%=      5-min Rain = 0
KUM1 092232Z 21011KT 22/M02 A301 RMK A01 T02231021  RH  019%=      5-min Rain = 0
KUM1 092233Z 22011KT 22/M02 A301 RMK A01 T02231021  RH  019%=      5-min Rain = 0
KUM1 092234Z 22010KT 22/M02 A3011 RMK A01 T02231023  RH  019%=      5-min Rain = 0
KUM1 092235Z 22011KT 22/M03 A301 RMK A01 T02231026  RH  019%=      5-min Rain = 0
KUM1 092236Z 22011KT 22/M03 A301 RMK A01 T02221028  RH  019%=      5-min Rain = 0
KUM1 092237Z 22009KT 22/M03 A301 RMK A01 T02221028  RH  019%=      5-min Rain = 0
KUM1 092238Z 23009KT 22/M03 A301 RMK A01 T02211026  RH  019%=      5-min Rain = 0
KUM1 092239Z 22009KT 22/M03 A301 RMK A01 T02211025  RH  019%=      5-min Rain = 0
KUM1 092240Z 22008KT 22/M02 A301 RMK A01 T02211021  RH  020%=      5-min Rain = 0
KUM1 092241Z 22008KT 22/M02 A301 RMK A01 T02201017  RH  020%=      5-min Rain = 0
KUM1 092242Z 22009KT 22/M02 A301 RMK A01 T02201016  RH  021%=      5-min Rain = 0
KUM1 092243Z 22009KT 22/M02 A301 RMK A01 T02201017  RH  020%=      5-min Rain = 0
KUM1 092244Z 22008KT 22/M02 A301 RMK A01 T02201018  RH  020%=      5-min Rain = 0
KUM1 092245Z 23008KT 22/M02 A301 RMK A01 T02191018  RH  020%=      5-min Rain = 0
KUM1 092246Z 22008KT 22/M02 A301 RMK A01 T02191020  RH  020%=      5-min Rain = 0
KUM1 092247Z 22007KT 22/M02 A301 RMK A01 T02181020  RH  020%=      5-min Rain = 0
KUM1 092248Z 22007KT 22/M02 A301 RMK A01 T02181018  RH  020%=      5-min Rain = 0
KUM1 092249Z 23010KT 22/M02 A301 RMK A01 T02171017  RH  021%=      5-min Rain = 0
KUM1 092250Z 23008KT 22/M02 A301 RMK A01 T02171016  RH  021%=      5-min Rain = 0
KUM1 092251Z 22008KT 22/M01 A301 RMK A01 T02161013  RH  021%=      5-min Rain = 0
KUM1 092252Z 22008KT 22/M01 A301 RMK A01 T02161013  RH  022%=      5-min Rain = 0
KUM1 092253Z 22008KT 22/M01 A301 RMK A01 T02151013  RH  022%=      5-min Rain = 0
KUM1 092254Z 22009KT 22/M01 A301 RMK A01 T02151014  RH  022%=      5-min Rain = 0
KUM1 092255Z 22010KT 21/M01 A301 RMK A01 T02141014  RH  022%=      5-min Rain = 0
KUM1 092256Z 22009KT 21/M02 A301 RMK A01 T02131015  RH  022%=      5-min Rain = 0
KUM1 092257Z 22009KT 21/M01 A301 RMK A01 T02131014  RH  022%=      5-min Rain = 0
KUM1 092258Z 22007KT 21/M02 A301 RMK A01 T02121015  RH  022%=      5-min Rain = 0
KUM1 092259Z 23009KT 21/M01 A301 RMK A01 T02111013  RH  022%=      5-min Rain = 0
KUM1 092300Z 22009KT 21/M01 A301 RMK A01 T02101013  RH  022%=      5-min Rain = 0
KUM1 092301Z 23009KT 21/M01 A301 RMK A01 T02101013  RH  022%=      5-min Rain = 0
KUM1 092302Z 22009KT 21/M01 A301 RMK A01 T02101011  RH  023%=      5-min Rain = 0
KUM1 092303Z 23009KT 21/M01 A301 RMK A01 T02091010  RH  023%=      5-min Rain = 0
KUM1 092304Z 22008KT 21/M01 A301 RMK A01 T02081008  RH  023%=      5-min Rain = 0
KUM1 092305Z 23007KT 21/M01 A301 RMK A01 T02071007  RH  024%=      5-min Rain = 0
KUM1 092306Z 23007KT 21/M01 A301 RMK A01 T02061007  RH  024%=      5-min Rain = 0
KUM1 092307Z 22008KT 21/M01 A301 RMK A01 T02051007  RH  024%=      5-min Rain = 0
KUM1 092308Z 22007KT 21/M01 A301 RMK A01 T02051007  RH  024%=      5-min Rain = 0
KUM1 092309Z 22008KT 20/M01 A301 RMK A01 T02041006  RH  024%=      5-min Rain = 0
KUM1 092310Z 22008KT 20/M01 A301 RMK A01 T02031005  RH  025%=      5-min Rain = 0
KUM1 092311Z 22008KT 20/M01 A301 RMK A01 T02021005  RH  025%=      5-min Rain = 0
KUM1 092312Z 22007KT 20/M00 A301 RMK A01 T02001004  RH  025%=      5-min Rain = 0
KUM1 092313Z 22007KT 20/M00 A301 RMK A01 T01991003  RH  026%=      5-min Rain = 0
KUM1 092314Z 22007KT 20/M00 A301 RMK A01 T01971002  RH  026%=      5-min Rain = 0
KUM1 092315Z 22007KT 20/M00 A301 RMK A01 T01961002  RH  026%=      5-min Rain = 0
KUM1 092316Z 22007KT 20/M00 A301 RMK A01 T01951002  RH  026%=      5-min Rain = 0
KUM1 092317Z 22007KT 19/M00 A301 RMK A01 T01941002  RH  027%=      5-min Rain = 0
KUM1 092318Z 22007KT 19/M00 A301 RMK A01 T01941002  RH  027%=      5-min Rain = 0
KUM1 092319Z 22007KT 19/M00 A301 RMK A01 T01931001  RH  027%=      5-min Rain = 0
KUM1 092320Z 22007KT 19/M00 A301 RMK A01 T01921001  RH  027%=      5-min Rain = 0
KUM1 092321Z 21007KT 19/M00 A301 RMK A01 T01901001  RH  028%=      5-min Rain = 0
KUM1 092322Z 21007KT 19/M00 A301 RMK A01 T01891002  RH  028%=      5-min Rain = 0
KUM1 092323Z 22007KT 19/M00 A301 RMK A01 T01871002  RH  028%=      5-min Rain = 0
KUM1 092324Z 21007KT 19/M00 A301 RMK A01 T01851003  RH  028%=      5-min Rain = 0
KUM1 092325Z 22007KT 18/M00 A301 RMK A01 T01831004  RH  028%=      5-min Rain = 0
KUM1 092326Z 21007KT 18/M01 A301 RMK A01 T01811005  RH  028%=      5-min Rain = 0
KUM1 092327Z 21008KT 18/M01 A301 RMK A01 T01781007  RH  028%=      5-min Rain = 0
KUM1 092328Z 21008KT 18/M01 A301 RMK A01 T01771008  RH  028%=      5-min Rain = 0
KUM1 092329Z 21008KT 18/M01 A301 RMK A01 T01751010  RH  028%=      5-min Rain = 0
KUM1 092330Z 21008KT 17/M01 A301 RMK A01 T01731011  RH  029%=      5-min Rain = 0
KUM1 092331Z 21008KT 17/M01 A301 RMK A01 T01711012  RH  029%=      5-min Rain = 0
KUM1 092332Z 21008KT 17/M01 A301 RMK A01 T01701012  RH  029%=      5-min Rain = 0
KUM1 092333Z 21009KT 17/M01 A301 RMK A01 T01681012  RH  029%=      5-min Rain = 0
KUM1 092334Z 21008KT 17/M01 A301 RMK A01 T01671012  RH  030%=      5-min Rain = 0
KUM1 092335Z 21008KT 17/M01 A301 RMK A01 T01651011  RH  030%=      5-min Rain = 0
KUM1 092336Z 21008KT 16/M01 A301 RMK A01 T01641011  RH  030%=      5-min Rain = 0
KUM1 092337Z 21008KT 16/M01 A301 RMK A01 T01621011  RH  031%=      5-min Rain = 0
KUM1 092338Z 21008KT 16/M01 A301 RMK A01 T01611011  RH  031%=      5-min Rain = 0
KUM1 092339Z 21008KT 16/M01 A301 RMK A01 T01601010  RH  031%=      5-min Rain = 0
KUM1 092340Z 21008KT 16/M01 A301 RMK A01 T01591011  RH  031%=      5-min Rain = 0
KUM1 092341Z 21008KT 16/M01 A301 RMK A01 T01581011  RH  031%=      5-min Rain = 0
KUM1 092342Z 21008KT 16/M01 A301 RMK A01 T01571011  RH  032%=      5-min Rain = 0
KUM1 092343Z 21008KT 16/M01 A301 RMK A01 T01561011  RH  032%=      5-min Rain = 0
KUM1 092344Z 21008KT 15/M01 A301 RMK A01 T01541011  RH  032%=      5-min Rain = 0
KUM1 092345Z 21008KT 15/M01 A301 RMK A01 T01531011  RH  033%=      5-min Rain = 0
KUM1 092346Z 21008KT 15/M01 A301 RMK A01 T01511011  RH  033%=      5-min Rain = 0
KUM1 092347Z 21008KT 15/M01 A301 RMK A01 T01501012  RH  033%=      5-min Rain = 0
KUM1 092348Z 21008KT 15/M01 A301 RMK A01 T01481012  RH  033%=      5-min Rain = 0
KUM1 092349Z 21008KT 15/M01 A301 RMK A01 T01471012  RH  034%=      5-min Rain = 0
KUM1 092350Z 21007KT 14/M01 A301 RMK A01 T01441012  RH  034%=      5-min Rain = 0
KUM1 092351Z 21007KT 14/M01 A301 RMK A01 T01421012  RH  034%=      5-min Rain = 0
KUM1 092352Z 21007KT 14/M01 A301 RMK A01 T01401013  RH  035%=      5-min Rain = 0
KUM1 092353Z 21008KT 14/M01 A301 RMK A01 T01381013  RH  035%=      5-min Rain = 0
KUM1 092354Z 21009KT 14/M01 A301 RMK A01 T01361013  RH  036%=      5-min Rain = 0
KUM1 092355Z 20009KT 13/M01 A301 RMK A01 T01341013  RH  036%=      5-min Rain = 0
KUM1 092356Z 20009KT 13/M01 A301 RMK A01 T01321013  RH  037%=      5-min Rain = 0
KUM1 092357Z 20008KT 13/M01 A301 RMK A01 T01301013  RH  037%=      5-min Rain = 0
KUM1 092358Z 20008KT 13/M01 A301 RMK A01 T01291013  RH  038%=      5-min Rain = 0
KUM1 092359Z 20008KT 13/M01 A301 RMK A01 T01271012  RH  038%=      5-min Rain = 0
KUM1 100000Z 20008KT 13/M01 A301 RMK A01 T01271012  RH  038%=      5-min Rain = 0
KUM1 100001Z 20009KT 13/M01 A301 RMK A01 T01251012  RH  039%=      5-min Rain = 0
KUM1 100002Z 20009KT 12/M01 A301 RMK A01 T01241012  RH  039%=      5-min Rain = 0
KUM1 100003Z 20009KT 12/M01 A301 RMK A01 T01241011  RH  039%=      5-min Rain = 0
KUM1 100004Z 20009KT 12/M01 A301 RMK A01 T01231011  RH  040%=      5-min Rain = 0
KUM1 100005Z 20009KT 12/M01 A301 RMK A01 T01221010  RH  040%=      5-min Rain = 0
KUM1 100006Z 20009KT 12/M01 A301 RMK A01 T01211009  RH  040%=      5-min Rain = 0
KUM1 100007Z 20009KT 12/M01 A301 RMK A01 T01201009  RH  041%=      5-min Rain = 0
KUM1 100008Z 20009KT 12/M01 A301 RMK A01 T01181010  RH  041%=      5-min Rain = 0
KUM1 100009Z 20009KT 12/M01 A301 RMK A01 T01161010  RH  042%=      5-min Rain = 0
KUM1 100010Z 20009KT 11/M01 A301 RMK A01 T01141010  RH  042%=      5-min Rain = 0
KUM1 100011Z 20009KT 11/M01 A301 RMK A01 T01131009  RH  043%=      5-min Rain = 0
KUM1 100012Z 20009KT 11/M01 A301 RMK A01 T01121009  RH  043%=      5-min Rain = 0
KUM1 100013Z 20010KT 11/M01 A301 RMK A01 T01121008  RH  043%=      5-min Rain = 0
KUM1 100014Z 20010KT 11/M01 A301 RMK A01 T01121007  RH  044%=      5-min Rain = 0
KUM1 100015Z 20010KT 11/M01 A301 RMK A01 T01111008  RH  044%=      5-min Rain = 0
KUM1 100016Z 20009KT 11/M01 A301 RMK A01 T01101007  RH  044%=      5-min Rain = 0
KUM1 100017Z 20009KT 11/M01 A301 RMK A01 T01101007  RH  044%=      5-min Rain = 0
KUM1 100018Z 20009KT 11/M01 A301 RMK A01 T01101006  RH  045%=      5-min Rain = 0
KUM1 100019Z 20008KT 11/M01 A301 RMK A01 T01101005  RH  045%=      5-min Rain = 0
KUM1 100020Z 20008KT 11/M00 A301 RMK A01 T01101004  RH  045%=      5-min Rain = 0
KUM1 100021Z 20008KT 11/M00 A301 RMK A01 T01091004  RH  045%=      5-min Rain = 0
KUM1 100022Z 20009KT 11/M01 A301 RMK A01 T01071005  RH  046%=      5-min Rain = 0
KUM1 100023Z 20008KT 11/M01 A301 RMK A01 T01061005  RH  046%=      5-min Rain = 0
KUM1 100024Z 20008KT 11/M01 A301 RMK A01 T01051005  RH  047%=      5-min Rain = 0
KUM1 100025Z 20008KT 10/M01 A301 RMK A01 T01041005  RH  047%=      5-min Rain = 0
KUM1 100026Z 20008KT 10/M01 A301 RMK A01 T01031005  RH  047%=      5-min Rain = 0
KUM1 100027Z 20008KT 10/M01 A301 RMK A01 T01011006  RH  047%=      5-min Rain = 0
KUM1 100028Z 20008KT 10/M01 A301 RMK A01 T00991006  RH  048%=      5-min Rain = 0
KUM1 100029Z 20008KT 10/M01 A301 RMK A01 T00961006  RH  049%=      5-min Rain = 0
KUM1 100030Z 20009KT 09/M01 A301 RMK A01 T00941005  RH  050%=      5-min Rain = 0
KUM1 100031Z 20009KT 09/M00 A301 RMK A01 T00931004  RH  050%=      5-min Rain = 0
KUM1 100032Z 20009KT 09/M00 A301 RMK A01 T00931004  RH  051%=      5-min Rain = 0
KUM1 100033Z 20009KT 09/M00 A301 RMK A01 T00921004  RH  051%=      5-min Rain = 0
KUM1 100034Z 20009KT 09/M00 A301 RMK A01 T00921004  RH  051%=      5-min Rain = 0
KUM1 100035Z 20009KT 09/M00 A301 RMK A01 T00921004  RH  051%=      5-min Rain = 0
KUM1 100036Z 20009KT 09/M00 A301 RMK A01 T00921004  RH  051%=      5-min Rain = 0
KUM1 100037Z 20009KT 09/M00 A301 RMK A01 T00921004  RH  051%=      5-min Rain = 0
KUM1 100038Z 19009KT 09/M00 A301 RMK A01 T00921004  RH  051%=      5-min Rain = 0
KUM1 100039Z 19009KT 09/M00 A301 RMK A01 T00931004  RH  051%=      5-min Rain = 0
KUM1 100040Z 19009KT 09/M00 A301 RMK A01 T00941003  RH  051%=      5-min Rain = 0
KUM1 100041Z 19009KT 10/M00 A301 RMK A01 T00951002  RH  050%=      5-min Rain = 0
KUM1 100042Z 19009KT 10/M00 A301 RMK A01 T00951003  RH  050%=      5-min Rain = 0
KUM1 100043Z 19009KT 09/M00 A301 RMK A01 T00941003  RH  051%=      5-min Rain = 0
KUM1 100044Z 19008KT 09/M00 A301 RMK A01 T00931003  RH  051%=      5-min Rain = 0
KUM1 100045Z 19009KT 09/M00 A301 RMK A01 T00921003  RH  052%=      5-min Rain = 0
KUM1 100046Z 19008KT 09/M00 A301 RMK A01 T00911002  RH  052%=      5-min Rain = 0
KUM1 100047Z 19008KT 09/M00 A301 RMK A01 T00901002  RH  053%=      5-min Rain = 0
KUM1 100048Z 19008KT 09/M00 A301 RMK A01 T00891002  RH  053%=      5-min Rain = 0
KUM1 100049Z 19009KT 09/M00 A301 RMK A01 T00881002  RH  053%=      5-min Rain = 0
KUM1 100050Z 20009KT 09/M00 A301 RMK A01 T00871002  RH  054%=      5-min Rain = 0
KUM1 100051Z 20009KT 09/M00 A301 RMK A01 T00861002  RH  054%=      5-min Rain = 0
KUM1 100052Z 20009KT 08/M00 A301 RMK A01 T00841002  RH  054%=      5-min Rain = 0
KUM1 100053Z 20009KT 08/M00 A301 RMK A01 T00841002  RH  055%=      5-min Rain = 0
KUM1 100054Z 20008KT 08/M00 A301 RMK A01 T00821002  RH  055%=      5-min Rain = 0
KUM1 100055Z 20008KT 08/M00 A301 RMK A01 T00811003  RH  056%=      5-min Rain = 0
KUM1 100056Z 20009KT 08/M00 A301 RMK A01 T00791003  RH  056%=      5-min Rain = 0
KUM1 100057Z 20009KT 08/M00 A301 RMK A01 T00781003  RH  057%=      5-min Rain = 0
KUM1 100058Z 20009KT 08/M00 A301 RMK A01 T00771003  RH  057%=      5-min Rain = 0
KUM1 100059Z 20009KT 08/M00 A301 RMK A01 T00761003  RH  057%=      5-min Rain = 0
KUM1 100100Z 20008KT 08/M00 A301 RMK A01 T00761002  RH  057%=      5-min Rain = 0
KUM1 100101Z 20008KT 08/M00 A301 RMK A01 T00771002  RH  057%=      5-min Rain = 0
KUM1 100102Z 20008KT 08/M00 A301 RMK A01 T00771002  RH  057%=      5-min Rain = 0
KUM1 100103Z 20008KT 08/M00 A301 RMK A01 T00761002  RH  058%=      5-min Rain = 0
KUM1 100104Z 20008KT 08/M00 A301 RMK A01 T00751003  RH  058%=      5-min Rain = 0
KUM1 100105Z 20008KT 07/M00 A301 RMK A01 T00741003  RH  058%=      5-min Rain = 0
KUM1 100106Z 20008KT 07/M00 A301 RMK A01 T00731002  RH  059%=      5-min Rain = 0
KUM1 100107Z 20008KT 07/M00 A301 RMK A01 T00731002  RH  059%=      5-min Rain = 0
KUM1 100108Z 20008KT 07/M00 A301 RMK A01 T00721002  RH  059%=      5-min Rain = 0
KUM1 100109Z 20008KT 07/M00 A301 RMK A01 T00721002  RH  059%=      5-min Rain = 0
KUM1 100110Z 20008KT 07/M00 A301 RMK A01 T00721002  RH  059%=      5-min Rain = 0
KUM1 100111Z 20007KT 07/M00 A301 RMK A01 T00721003  RH  059%=      5-min Rain = 0
KUM1 100112Z 20007KT 07/M00 A301 RMK A01 T00721003  RH  059%=      5-min Rain = 0
KUM1 100113Z 20007KT 07/M00 A301 RMK A01 T00721004  RH  058%=      5-min Rain = 0
KUM1 100114Z 21007KT 07/M00 A301 RMK A01 T00731004  RH  058%=      5-min Rain = 0
KUM1 100115Z 21007KT 07/M00 A301 RMK A01 T00731004  RH  058%=      5-min Rain = 0
KUM1 100116Z 21007KT 07/M00 A301 RMK A01 T00741003  RH  058%=      5-min Rain = 0
KUM1 100117Z 21007KT 08/M00 A301 RMK A01 T00751004  RH  057%=      5-min Rain = 0
KUM1 100118Z 21007KT 08/M00 A301 RMK A01 T00761003  RH  057%=      5-min Rain = 0
KUM1 100119Z 21007KT 08/M00 A301 RMK A01 T00761004  RH  057%=      5-min Rain = 0
KUM1 100120Z 21007KT 08/M00 A301 RMK A01 T00771004  RH  057%=      5-min Rain = 0
KUM1 100121Z 21007KT 08/M00 A301 RMK A01 T00771004  RH  057%=      5-min Rain = 0
KUM1 100122Z 21007KT 08/M00 A301 RMK A01 T00771004  RH  057%=      5-min Rain = 0
KUM1 100123Z 21007KT 08/M00 A301 RMK A01 T00761003  RH  057%=      5-min Rain = 0
KUM1 100124Z 21007KT 08/M00 A301 RMK A01 T00771003  RH  057%=      5-min Rain = 0
KUM1 100125Z 21007KT 08/M00 A301 RMK A01 T00771002  RH  057%=      5-min Rain = 0
KUM1 100126Z 21007KT 08/M00 A301 RMK A01 T00771002  RH  058%=      5-min Rain = 0
KUM1 100127Z 21007KT 08/M00 A301 RMK A01 T00771001  RH  058%=      5-min Rain = 0
KUM1 100128Z 21007KT 08/00 A301 RMK A01 T007800-0  RH  058%=      5-min Rain = 0
KUM1 100129Z 21007KT 08/00 A301 RMK A01 T00780000  RH  058%=      5-min Rain = 0
KUM1 100130Z 21008KT 08/00 A301 RMK A01 T00790001  RH  058%=      5-min Rain = 0
KUM1 100131Z 21008KT 08/00 A301 RMK A01 T00790001  RH  058%=      5-min Rain = 0
KUM1 100132Z 21007KT 08/00 A301 RMK A01 T00800002  RH  058%=      5-min Rain = 0
KUM1 100133Z 21007KT 08/00 A301 RMK A01 T00800002  RH  058%=      5-min Rain = 0
KUM1 100134Z 21007KT 08/00 A301 RMK A01 T00800002  RH  058%=      5-min Rain = 0
KUM1 100135Z 21007KT 08/00 A301 RMK A01 T00800001  RH  057%=      5-min Rain = 0
KUM1 100136Z 21007KT 08/00 A301 RMK A01 T00800001  RH  057%=      5-min Rain = 0
KUM1 100137Z 21007KT 08/00 A301 RMK A01 T00800001  RH  057%=      5-min Rain = 0
KUM1 100138Z 21007KT 08/00 A301 RMK A01 T00790001  RH  058%=      5-min Rain = 0
KUM1 100139Z 22007KT 08/00 A301 RMK A01 T00790001  RH  058%=      5-min Rain = 0
KUM1 100140Z 21007KT 08/00 A301 RMK A01 T00780001  RH  058%=      5-min Rain = 0
KUM1 100141Z 21006KT 08/00 A301 RMK A01 T00780002  RH  058%=      5-min Rain = 0
KUM1 100142Z 21006KT 08/00 A301 RMK A01 T00780001  RH  058%=      5-min Rain = 0
KUM1 100143Z 21007KT 08/00 A301 RMK A01 T00780001  RH  058%=      5-min Rain = 0
KUM1 100144Z 21007KT 08/00 A301 RMK A01 T00780001  RH  058%=      5-min Rain = 0
KUM1 100145Z 21007KT 08/00 A301 RMK A01 T00770000  RH  058%=      5-min Rain = 0
KUM1 100146Z 21007KT 08/00 A301 RMK A01 T007500-0  RH  059%=      5-min Rain = 0
KUM1 100147Z 21007KT 07/M00 A301 RMK A01 T00741001  RH  059%=      5-min Rain = 0
KUM1 100148Z 21007KT 07/M00 A301 RMK A01 T00741001  RH  059%=      5-min Rain = 0
KUM1 100149Z 21007KT 07/M00 A301 RMK A01 T00741001  RH  059%=      5-min Rain = 0
KUM1 100150Z 21007KT 07/M00 A301 RMK A01 T00721002  RH  059%=      5-min Rain = 0
KUM1 100151Z 22007KT 07/M00 A301 RMK A01 T00701002  RH  060%=      5-min Rain = 0
KUM1 100152Z 22007KT 07/M00 A301 RMK A01 T00681002  RH  061%=      5-min Rain = 0
KUM1 100153Z 22007KT 07/M00 A301 RMK A01 T00671003  RH  061%=      5-min Rain = 0
KUM1 100154Z 21007KT 07/M00 A301 RMK A01 T00671002  RH  061%=      5-min Rain = 0
KUM1 100155Z 21007KT 07/M00 A301 RMK A01 T00681002  RH  061%=      5-min Rain = 0
KUM1 100156Z 22007KT 07/M00 A301 RMK A01 T00681002  RH  061%=      5-min Rain = 0
KUM1 100157Z 22007KT 07/M00 A301 RMK A01 T00661003  RH  061%=      5-min Rain = 0
KUM1 100158Z 22007KT 07/M00 A301 RMK A01 T00651003  RH  062%=      5-min Rain = 0
KUM1 100159Z 22007KT 07/M00 A301 RMK A01 T00651002  RH  062%=      5-min Rain = 0
KUM1 100200Z 22007KT 07/M00 A301 RMK A01 T00671001  RH  062%=      5-min Rain = 0
KUM1 100201Z 22007KT 07/M00 A301 RMK A01 T00661003  RH  061%=      5-min Rain = 0
KUM1 100202Z 22007KT 06/M01 A301 RMK A01 T00641005  RH  062%=      5-min Rain = 0
KUM1 100203Z 23007KT 06/M00 A301 RMK A01 T00641002  RH  062%=      5-min Rain = 0
KUM1 100204Z 23007KT 07/00 A301 RMK A01 T006700-0  RH  062%=      5-min Rain = 0
KUM1 100205Z 23007KT 07/00 A301 RMK A01 T00690000  RH  062%=      5-min Rain = 0
KUM1 100206Z 23007KT 07/00 A301 RMK A01 T00710001  RH  061%=      5-min Rain = 0
KUM1 100207Z 23008KT 07/00 A301 RMK A01 T00740004  RH  061%=      5-min Rain = 0
KUM1 100208Z 22008KT 08/01 A301 RMK A01 T00800006  RH  060%=      5-min Rain = 0
KUM1 100209Z 22008KT 08/00 A301 RMK A01 T00820004  RH  058%=      5-min Rain = 0
KUM1 100210Z 22008KT 08/00 A301 RMK A01 T00830003  RH  057%=      5-min Rain = 0
KUM1 100211Z 22008KT 08/00 A301 RMK A01 T00810002  RH  058%=      5-min Rain = 0
KUM1 100212Z 22008KT 08/00 A301 RMK A01 T00790002  RH  058%=      5-min Rain = 0
KUM1 100213Z 22009KT 08/00 A301 RMK A01 T00780003  RH  059%=      5-min Rain = 0
KUM1 100214Z 22009KT 08/00 A301 RMK A01 T00770003  RH  060%=      5-min Rain = 0
KUM1 100215Z 22009KT 08/00 A301 RMK A01 T00770004  RH  060%=      5-min Rain = 0
KUM1 100216Z 22009KT 08/00 A301 RMK A01 T00780004  RH  059%=      5-min Rain = 0
KUM1 100217Z 22009KT 08/01 A301 RMK A01 T00800005  RH  059%=      5-min Rain = 0
KUM1 100218Z 22009KT 08/01 A301 RMK A01 T00820005  RH  058%=      5-min Rain = 0
KUM1 100219Z 22010KT 08/00 A301 RMK A01 T00830004  RH  057%=      5-min Rain = 0
KUM1 100220Z 22010KT 09/00 A301 RMK A01 T00850004  RH  057%=      5-min Rain = 0
KUM1 100221Z 22010KT 09/00 A301 RMK A01 T00870004  RH  056%=      5-min Rain = 0
KUM1 100222Z 22011KT 09/00 A301 RMK A01 T00900004  RH  055%=      5-min Rain = 0
KUM1 100223Z 22010KT 09/01 A301 RMK A01 T00930005  RH  054%=      5-min Rain = 0
KUM1 100224Z 22010KT 10/00 A301 RMK A01 T00950004  RH  053%=      5-min Rain = 0
KUM1 100225Z 22010KT 10/01 A301 RMK A01 T00970005  RH  052%=      5-min Rain = 0
KUM1 100226Z 22010KT 10/01 A301 RMK A01 T00990005  RH  052%=      5-min Rain = 0
KUM1 100227Z 22011KT 10/01 A301 RMK A01 T01010005  RH  051%=      5-min Rain = 0
KUM1 100228Z 22011KT 10/01 A301 RMK A01 T01020005  RH  051%=      5-min Rain = 0
KUM1 100229Z 22010KT 10/01 A301 RMK A01 T01030005  RH  051%=      5-min Rain = 0
KUM1 100230Z 22010KT 10/00 A301 RMK A01 T01030004  RH  050%=      5-min Rain = 0
KUM1 100231Z 22010KT 10/00 A301 RMK A01 T01030004  RH  050%=      5-min Rain = 0
KUM1 100232Z 22010KT 10/00 A301 RMK A01 T01040004  RH  050%=      5-min Rain = 0
KUM1 100233Z 22010KT 10/00 A301 RMK A01 T01030004  RH  050%=      5-min Rain = 0
KUM1 100234Z 22010KT 10/00 A301 RMK A01 T01020004  RH  051%=      5-min Rain = 0
KUM1 100235Z 22010KT 10/00 A301 RMK A01 T01010004  RH  051%=      5-min Rain = 0
KUM1 100236Z 22010KT 10/00 A301 RMK A01 T01010004  RH  051%=      5-min Rain = 0
KUM1 100237Z 22009KT 10/00 A301 RMK A01 T01000004  RH  051%=      5-min Rain = 0
KUM1 100238Z 22010KT 10/00 A301 RMK A01 T00980004  RH  052%=      5-min Rain = 0
KUM1 100239Z 22009KT 10/00 A301 RMK A01 T00970004  RH  052%=      5-min Rain = 0
KUM1 100240Z 22009KT 10/01 A301 RMK A01 T00970005  RH  053%=      5-min Rain = 0
KUM1 100241Z 22009KT 10/01 A301 RMK A01 T00960005  RH  053%=      5-min Rain = 0
KUM1 100242Z 22009KT 10/01 A301 RMK A01 T00950005  RH  053%=      5-min Rain = 0
KUM1 100243Z 22009KT 09/01 A301 RMK A01 T00940005  RH  054%=      5-min Rain = 0
KUM1 100244Z 22009KT 09/01 A301 RMK A01 T00930005  RH  054%=      5-min Rain = 0
KUM1 100245Z 22009KT 09/01 A301 RMK A01 T00920005  RH  054%=      5-min Rain = 0
KUM1 100246Z 22009KT 09/01 A301 RMK A01 T00920005  RH  055%=      5-min Rain = 0
KUM1 100247Z 22009KT 09/01 A301 RMK A01 T00910005  RH  055%=      5-min Rain = 0
KUM1 100248Z 22009KT 09/01 A301 RMK A01 T00900005  RH  055%=      5-min Rain = 0
KUM1 100249Z 22009KT 09/01 A301 RMK A01 T00900005  RH  055%=      5-min Rain = 0
KUM1 100250Z 22009KT 09/01 A301 RMK A01 T00890005  RH  056%=      5-min Rain = 0
KUM1 100251Z 22009KT 09/01 A301 RMK A01 T00880005  RH  056%=      5-min Rain = 0
KUM1 100252Z 22009KT 09/01 A301 RMK A01 T00880006  RH  056%=      5-min Rain = 0
KUM1 100253Z 22009KT 09/01 A301 RMK A01 T00880006  RH  057%=      5-min Rain = 0
KUM1 100254Z 22009KT 09/01 A301 RMK A01 T00870006  RH  057%=      5-min Rain = 0
KUM1 100255Z 22009KT 09/01 A3009 RMK A01 T00860006  RH  057%=      5-min Rain = 0
KUM1 100256Z 22009KT 09/01 A3009 RMK A01 T00850005  RH  057%=      5-min Rain = 0
KUM1 100257Z 22009KT 09/01 A3009 RMK A01 T00850006  RH  057%=      5-min Rain = 0
KUM1 100258Z 22009KT 09/01 A3009 RMK A01 T00850006  RH  058%=      5-min Rain = 0
KUM1 100259Z 22010KT 09/01 A3009 RMK A01 T00850006  RH  058%=      5-min Rain = 0
KUM1 100300Z 22009KT 08/01 A3009 RMK A01 T00840006  RH  058%=      5-min Rain = 0
KUM1 100301Z 22010KT 08/01 A3009 RMK A01 T00830006  RH  058%=      5-min Rain = 0
KUM1 100302Z 22009KT 08/01 A3009 RMK A01 T00830006  RH  058%=      5-min Rain = 0
KUM1 100303Z 22010KT 08/01 A3009 RMK A01 T00840007  RH  058%=      5-min Rain = 0
KUM1 100304Z 22010KT 08/01 A3009 RMK A01 T00840007  RH  058%=      5-min Rain = 0
KUM1 100305Z 22009KT 09/01 A3009 RMK A01 T00850007  RH  058%=      5-min Rain = 0
KUM1 100306Z 22009KT 09/01 A3009 RMK A01 T00850006  RH  058%=      5-min Rain = 0
KUM1 100307Z 22009KT 09/01 A3009 RMK A01 T00850007  RH  058%=      5-min Rain = 0
KUM1 100308Z 22009KT 08/01 A3009 RMK A01 T00840007  RH  058%=      5-min Rain = 0
KUM1 100309Z 22009KT 08/01 A3009 RMK A01 T00830006  RH  059%=      5-min Rain = 0
KUM1 100310Z 22009KT 08/01 A3009 RMK A01 T00830007  RH  059%=      5-min Rain = 0
KUM1 100311Z 22009KT 08/01 A3009 RMK A01 T00830007  RH  059%=      5-min Rain = 0
KUM1 100312Z 22009KT 08/01 A3009 RMK A01 T00820007  RH  059%=      5-min Rain = 0
KUM1 100313Z 23009KT 08/01 A3009 RMK A01 T00820007  RH  059%=      5-min Rain = 0
KUM1 100314Z 22010KT 08/01 A3009 RMK A01 T00820007  RH  059%=      5-min Rain = 0
KUM1 100315Z 22009KT 08/01 A3009 RMK A01 T00820008  RH  060%=      5-min Rain = 0
KUM1 100316Z 22009KT 08/01 A3009 RMK A01 T00820008  RH  060%=      5-min Rain = 0
KUM1 100317Z 22009KT 08/01 A3009 RMK A01 T00820008  RH  060%=      5-min Rain = 0
KUM1 100318Z 22009KT 08/01 A3009 RMK A01 T00810008  RH  060%=      5-min Rain = 0
KUM1 100319Z 22009KT 08/01 A3009 RMK A01 T00810008  RH  060%=      5-min Rain = 0
KUM1 100320Z 22009KT 08/01 A3009 RMK A01 T00800008  RH  060%=      5-min Rain = 0
KUM1 100321Z 22008KT 08/01 A3009 RMK A01 T00800008  RH  060%=      5-min Rain = 0
KUM1 100322Z 23008KT 08/01 A3009 RMK A01 T00800008  RH  060%=      5-min Rain = 0
KUM1 100323Z 22008KT 08/01 A3009 RMK A01 T00790008  RH  061%=      5-min Rain = 0
KUM1 100324Z 23008KT 08/01 A3009 RMK A01 T00790008  RH  061%=      5-min Rain = 0
KUM1 100325Z 22008KT 08/01 A301 RMK A01 T00790008  RH  061%=      5-min Rain = 0
KUM1 100326Z 22008KT 08/01 A3009 RMK A01 T00790008  RH  061%=      5-min Rain = 0
KUM1 100327Z 22008KT 08/01 A3009 RMK A01 T00790009  RH  061%=      5-min Rain = 0
KUM1 100328Z 23008KT 08/01 A3009 RMK A01 T00780009  RH  061%=      5-min Rain = 0
KUM1 100329Z 23008KT 08/01 A3009 RMK A01 T00780009  RH  062%=      5-min Rain = 0
KUM1 100330Z 23008KT 08/01 A3009 RMK A01 T00770008  RH  062%=      5-min Rain = 0
KUM1 100331Z 22008KT 08/01 A3009 RMK A01 T00770009  RH  062%=      5-min Rain = 0
KUM1 100332Z 23008KT 08/01 A3009 RMK A01 T00770009  RH  062%=      5-min Rain = 0
KUM1 100333Z 23008KT 08/01 A3009 RMK A01 T00770009  RH  062%=      5-min Rain = 0
KUM1 100334Z 23008KT 08/01 A3009 RMK A01 T00770008  RH  062%=      5-min Rain = 0
KUM1 100335Z 23007KT 08/01 A3009 RMK A01 T00770008  RH  062%=      5-min Rain = 0
KUM1 100336Z 23007KT 08/01 A3009 RMK A01 T00760008  RH  062%=      5-min Rain = 0
KUM1 100337Z 23007KT 08/01 A3009 RMK A01 T00750008  RH  062%=      5-min Rain = 0
KUM1 100338Z 23008KT 08/01 A3009 RMK A01 T00750008  RH  063%=      5-min Rain = 0
KUM1 100339Z 23008KT 07/01 A3009 RMK A01 T00740008  RH  063%=      5-min Rain = 0
KUM1 100340Z 23008KT 07/01 A3009 RMK A01 T00740008  RH  063%=      5-min Rain = 0
KUM1 100341Z 23007KT 07/01 A3009 RMK A01 T00730008  RH  063%=      5-min Rain = 0
KUM1 100342Z 23008KT 07/01 A3009 RMK A01 T00730008  RH  063%=      5-min Rain = 0
KUM1 100343Z 23007KT 07/01 A3009 RMK A01 T00730008  RH  063%=      5-min Rain = 0
KUM1 100344Z 23008KT 07/01 A3009 RMK A01 T00720008  RH  064%=      5-min Rain = 0
KUM1 100345Z 23008KT 07/01 A3009 RMK A01 T00720008  RH  064%=      5-min Rain = 0
KUM1 100346Z 23008KT 07/01 A3009 RMK A01 T00720008  RH  064%=      5-min Rain = 0
KUM1 100347Z 23008KT 07/01 A3009 RMK A01 T00710008  RH  064%=      5-min Rain = 0
KUM1 100348Z 23008KT 07/01 A3009 RMK A01 T00700008  RH  064%=      5-min Rain = 0
KUM1 100349Z 23008KT 07/01 A3009 RMK A01 T00700008  RH  065%=      5-min Rain = 0
KUM1 100350Z 23008KT 07/01 A3009 RMK A01 T00700008  RH  065%=      5-min Rain = 0
KUM1 100351Z 23008KT 07/01 A3009 RMK A01 T00690008  RH  065%=      5-min Rain = 0
KUM1 100352Z 23008KT 07/01 A3009 RMK A01 T00690008  RH  065%=      5-min Rain = 0
KUM1 100353Z 23008KT 07/01 A3009 RMK A01 T00680008  RH  066%=      5-min Rain = 0
KUM1 100354Z 23008KT 07/01 A3009 RMK A01 T00670009  RH  066%=      5-min Rain = 0
KUM1 100355Z 23008KT 07/01 A3009 RMK A01 T00670009  RH  066%=      5-min Rain = 0
KUM1 100356Z 23008KT 07/01 A3009 RMK A01 T00670009  RH  067%=      5-min Rain = 0
KUM1 100357Z 23008KT 07/01 A3009 RMK A01 T00670009  RH  067%=      5-min Rain = 0
KUM1 100358Z 23009KT 07/01 A3009 RMK A01 T00670009  RH  067%=      5-min Rain = 0
KUM1 100359Z 23008KT 07/01 A3009 RMK A01 T00660009  RH  067%=      5-min Rain = 0
KUM1 100400Z 23008KT 07/01 A3009 RMK A01 T00670010  RH  067%=      5-min Rain = 0
KUM1 100401Z 23008KT 07/01 A3009 RMK A01 T00660010  RH  067%=      5-min Rain = 0
KUM1 100402Z 23008KT 07/01 A3009 RMK A01 T00660010  RH  067%=      5-min Rain = 0
KUM1 100403Z 23008KT 07/01 A3009 RMK A01 T00660010  RH  068%=      5-min Rain = 0
KUM1 100404Z 24008KT 07/01 A3009 RMK A01 T00650010  RH  068%=      5-min Rain = 0
KUM1 100405Z 24008KT 06/01 A3009 RMK A01 T00640009  RH  068%=      5-min Rain = 0
KUM1 100406Z 24007KT 06/01 A3009 RMK A01 T00630009  RH  068%=      5-min Rain = 0
KUM1 100407Z 24008KT 06/01 A3009 RMK A01 T00620009  RH  069%=      5-min Rain = 0
KUM1 100408Z 23008KT 06/01 A3009 RMK A01 T00620009  RH  069%=      5-min Rain = 0
KUM1 100409Z 24008KT 06/01 A3009 RMK A01 T00620009  RH  069%=      5-min Rain = 0
KUM1 100410Z 24008KT 06/01 A3009 RMK A01 T00620009  RH  069%=      5-min Rain = 0
KUM1 100411Z 24008KT 06/01 A3009 RMK A01 T00620009  RH  069%=      5-min Rain = 0
KUM1 100412Z 24008KT 06/01 A3009 RMK A01 T00610008  RH  069%=      5-min Rain = 0
KUM1 100413Z 24008KT 06/01 A3009 RMK A01 T00610008  RH  069%=      5-min Rain = 0
KUM1 100414Z 23008KT 06/01 A3009 RMK A01 T00610008  RH  069%=      5-min Rain = 0
KUM1 100415Z 24008KT 06/01 A3009 RMK A01 T00600007  RH  069%=      5-min Rain = 0
KUM1 100416Z 24008KT 06/01 A3009 RMK A01 T00600007  RH  069%=      5-min Rain = 0
KUM1 100417Z 24009KT 06/01 A3009 RMK A01 T00600007  RH  069%=      5-min Rain = 0
KUM1 100418Z 24008KT 06/01 A3009 RMK A01 T00600007  RH  068%=      5-min Rain = 0
KUM1 100419Z 24009KT 06/01 A3009 RMK A01 T00600006  RH  068%=      5-min Rain = 0
KUM1 100420Z 24009KT 06/01 A3009 RMK A01 T00600006  RH  068%=      5-min Rain = 0
KUM1 100421Z 24008KT 06/01 A3009 RMK A01 T00590006  RH  068%=      5-min Rain = 0
KUM1 100422Z 24009KT 06/01 A3009 RMK A01 T00590006  RH  069%=      5-min Rain = 0
KUM1 100423Z 24008KT 06/01 A3009 RMK A01 T00590006  RH  068%=      5-min Rain = 0
KUM1 100424Z 24008KT 06/01 A3009 RMK A01 T00580005  RH  069%=      5-min Rain = 0
KUM1 100425Z 24008KT 06/01 A3009 RMK A01 T00580005  RH  069%=      5-min Rain = 0
KUM1 100426Z 24008KT 06/01 A3009 RMK A01 T00580005  RH  069%=      5-min Rain = 0
KUM1 100427Z 23009KT 06/00 A3009 RMK A01 T00570004  RH  069%=      5-min Rain = 0
KUM1 100428Z 23008KT 06/00 A3009 RMK A01 T00570004  RH  069%=      5-min Rain = 0
KUM1 100429Z 23008KT 06/00 A3009 RMK A01 T00570004  RH  068%=      5-min Rain = 0
KUM1 100430Z 23008KT 06/00 A3009 RMK A01 T00580004  RH  068%=      5-min Rain = 0
KUM1 100431Z 23007KT 06/00 A3009 RMK A01 T00570003  RH  068%=      5-min Rain = 0
KUM1 100432Z 23008KT 06/00 A3009 RMK A01 T00560003  RH  068%=      5-min Rain = 0
KUM1 100433Z 23008KT 06/00 A3009 RMK A01 T00550003  RH  069%=      5-min Rain = 0
KUM1 100434Z 22008KT 05/00 A3009 RMK A01 T00540002  RH  069%=      5-min Rain = 0
KUM1 100435Z 22008KT 05/00 A3009 RMK A01 T00520001  RH  070%=      5-min Rain = 0
KUM1 100436Z 22008KT 05/00 A3009 RMK A01 T00500001  RH  071%=      5-min Rain = 0
KUM1 100437Z 22008KT 05/00 A3009 RMK A01 T00490001  RH  071%=      5-min Rain = 0
KUM1 100438Z 23008KT 05/00 A3009 RMK A01 T00480001  RH  072%=      5-min Rain = 0
KUM1 100439Z 23008KT 05/00 A3009 RMK A01 T00490002  RH  072%=      5-min Rain = 0
KUM1 100440Z 23008KT 05/00 A3009 RMK A01 T00500003  RH  071%=      5-min Rain = 0
KUM1 100441Z 23009KT 05/00 A3009 RMK A01 T00520003  RH  071%=      5-min Rain = 0
KUM1 100442Z 23008KT 05/00 A3009 RMK A01 T00520003  RH  070%=      5-min Rain = 0
KUM1 100443Z 23008KT 05/00 A3009 RMK A01 T00530003  RH  070%=      5-min Rain = 0
KUM1 100444Z 23008KT 05/00 A3009 RMK A01 T00540003  RH  070%=      5-min Rain = 0
KUM1 100445Z 23008KT 05/00 A3009 RMK A01 T00540003  RH  069%=      5-min Rain = 0
KUM1 100446Z 23008KT 05/00 A3009 RMK A01 T00530002  RH  070%=      5-min Rain = 0
KUM1 100447Z 23008KT 05/00 A3009 RMK A01 T00520002  RH  070%=      5-min Rain = 0
KUM1 100448Z 23008KT 05/00 A3009 RMK A01 T00510002  RH  070%=      5-min Rain = 0
KUM1 100449Z 23007KT 05/00 A3009 RMK A01 T00510002  RH  071%=      5-min Rain = 0
KUM1 100450Z 23008KT 05/00 A3009 RMK A01 T00520003  RH  071%=      5-min Rain = 0
KUM1 100451Z 23009KT 05/00 A3009 RMK A01 T00520003  RH  070%=      5-min Rain = 0
KUM1 100452Z 23009KT 05/00 A3009 RMK A01 T00520003  RH  070%=      5-min Rain = 0
KUM1 100453Z 23009KT 05/00 A3009 RMK A01 T00520003  RH  070%=      5-min Rain = 0
KUM1 100454Z 23009KT 05/00 A3009 RMK A01 T00520003  RH  070%=      5-min Rain = 0
KUM1 100455Z 23008KT 05/00 A3009 RMK A01 T00520002  RH  070%=      5-min Rain = 0
KUM1 100456Z 24008KT 05/00 A3009 RMK A01 T00520002  RH  070%=      5-min Rain = 0
KUM1 100457Z 24007KT 05/00 A3009 RMK A01 T00530003  RH  070%=      5-min Rain = 0
KUM1 100458Z 24008KT 05/00 A3009 RMK A01 T00540003  RH  070%=      5-min Rain = 0
KUM1 100459Z 24008KT 05/00 A3009 RMK A01 T00540003  RH  070%=      5-min Rain = 0
KUM1 100500Z 24007KT 06/00 A3009 RMK A01 T00550003  RH  070%=      5-min Rain = 0
KUM1 100501Z 24007KT 05/00 A3009 RMK A01 T00540003  RH  069%=      5-min Rain = 0
KUM1 100502Z 23007KT 05/00 A3009 RMK A01 T00540003  RH  070%=      5-min Rain = 0
KUM1 100503Z 23007KT 05/00 A3009 RMK A01 T00530002  RH  070%=      5-min Rain = 0
KUM1 100504Z 23007KT 05/00 A3009 RMK A01 T00530003  RH  070%=      5-min Rain = 0
KUM1 100505Z 23006KT 05/00 A3009 RMK A01 T00530003  RH  070%=      5-min Rain = 0
KUM1 100506Z 23007KT 05/00 A3009 RMK A01 T00520002  RH  070%=      5-min Rain = 0
KUM1 100507Z 23006KT 05/00 A3009 RMK A01 T00510003  RH  071%=      5-min Rain = 0
KUM1 100508Z 23007KT 05/00 A3009 RMK A01 T00510003  RH  071%=      5-min Rain = 0
KUM1 100509Z 23007KT 05/00 A3009 RMK A01 T00510003  RH  071%=      5-min Rain = 0
KUM1 100510Z 23006KT 05/00 A3009 RMK A01 T00510003  RH  071%=      5-min Rain = 0
KUM1 100511Z 23006KT 05/00 A3009 RMK A01 T00500002  RH  071%=      5-min Rain = 0
KUM1 100512Z 23007KT 05/00 A3009 RMK A01 T00480001  RH  072%=      5-min Rain = 0
KUM1 100513Z 23007KT 05/00 A3009 RMK A01 T00480002  RH  072%=      5-min Rain = 0
KUM1 100514Z 23007KT 05/00 A3009 RMK A01 T00480002  RH  072%=      5-min Rain = 0
KUM1 100515Z 23007KT 05/00 A3009 RMK A01 T00470001  RH  072%=      5-min Rain = 0
KUM1 100516Z 23007KT 05/00 A3009 RMK A01 T00470002  RH  072%=      5-min Rain = 0
KUM1 100517Z 22007KT 05/00 A3009 RMK A01 T00460001  RH  073%=      5-min Rain = 0
KUM1 100518Z 23008KT 05/00 A3009 RMK A01 T00450001  RH  073%=      5-min Rain = 0
KUM1 100519Z 22008KT 04/00 A3009 RMK A01 T00440001  RH  073%=      5-min Rain = 0
KUM1 100520Z 22008KT 04/00 A3009 RMK A01 T00440001  RH  074%=      5-min Rain = 0
KUM1 100521Z 23008KT 04/00 A3009 RMK A01 T00430001  RH  074%=      5-min Rain = 0
KUM1 100522Z 23008KT 04/00 A3009 RMK A01 T00430001  RH  074%=      5-min Rain = 0
KUM1 100523Z 23008KT 04/00 A3009 RMK A01 T00440002  RH  074%=      5-min Rain = 0
KUM1 100524Z 23007KT 05/00 A3009 RMK A01 T00460002  RH  073%=      5-min Rain = 0
KUM1 100525Z 23007KT 05/00 A3009 RMK A01 T00470002  RH  073%=      5-min Rain = 0
KUM1 100526Z 23007KT 05/00 A3009 RMK A01 T00460001  RH  072%=      5-min Rain = 0
KUM1 100527Z 23007KT 05/00 A3009 RMK A01 T00470001  RH  072%=      5-min Rain = 0
KUM1 100528Z 23007KT 05/00 A3009 RMK A01 T00470001  RH  072%=      5-min Rain = 0
KUM1 100529Z 23006KT 05/00 A3009 RMK A01 T00470001  RH  072%=      5-min Rain = 0
KUM1 100530Z 23007KT 05/00 A3009 RMK A01 T00450000  RH  073%=      5-min Rain = 0
KUM1 100531Z 22007KT 04/00 A3009 RMK A01 T004400-0  RH  073%=      5-min Rain = 0
KUM1 100532Z 22007KT 04/00 A3009 RMK A01 T004300-0  RH  074%=      5-min Rain = 0
KUM1 100533Z 23007KT 04/00 A3009 RMK A01 T004200-0  RH  074%=      5-min Rain = 0
KUM1 100534Z 23007KT 04/00 A3008 RMK A01 T00410000  RH  075%=      5-min Rain = 0
KUM1 100535Z 23007KT 04/00 A3008 RMK A01 T00420001  RH  075%=      5-min Rain = 0
KUM1 100536Z 23007KT 04/00 A3008 RMK A01 T00420001  RH  075%=      5-min Rain = 0
KUM1 100537Z 23007KT 04/00 A3008 RMK A01 T00430002  RH  074%=      5-min Rain = 0
KUM1 100538Z 23007KT 04/00 A3008 RMK A01 T00430001  RH  074%=      5-min Rain = 0
KUM1 100539Z 23007KT 04/00 A3008 RMK A01 T00430001  RH  074%=      5-min Rain = 0
KUM1 100540Z 23007KT 04/00 A3008 RMK A01 T00420001  RH  075%=      5-min Rain = 0
KUM1 100541Z 23007KT 04/00 A3008 RMK A01 T00410000  RH  075%=      5-min Rain = 0
KUM1 100542Z 23008KT 04/M00 A3008 RMK A01 T00391001  RH  075%=      5-min Rain = 0
KUM1 100543Z 22008KT 04/M00 A3008 RMK A01 T00391001  RH  075%=      5-min Rain = 0
KUM1 100544Z 22008KT 04/M00 A3008 RMK A01 T00381002  RH  076%=      5-min Rain = 0
KUM1 100545Z 23008KT 04/M00 A3008 RMK A01 T00381001  RH  076%=      5-min Rain = 0
KUM1 100546Z 22008KT 04/00 A3008 RMK A01 T003800-0  RH  076%=      5-min Rain = 0
KUM1 100547Z 22008KT 04/00 A3008 RMK A01 T003900-0  RH  076%=      5-min Rain = 0
KUM1 100548Z 23008KT 04/00 A3008 RMK A01 T003900-0  RH  076%=      5-min Rain = 0
KUM1 100549Z 22008KT 04/M00 A3008 RMK A01 T00391001  RH  075%=      5-min Rain = 0
KUM1 100550Z 22008KT 04/M00 A3008 RMK A01 T00391001  RH  075%=      5-min Rain = 0
KUM1 100551Z 22008KT 04/M00 A3008 RMK A01 T00391001  RH  075%=      5-min Rain = 0
KUM1 100552Z 22008KT 04/M00 A3008 RMK A01 T00391002  RH  075%=      5-min Rain = 0
KUM1 100553Z 22009KT 04/M00 A3008 RMK A01 T00381003  RH  075%=      5-min Rain = 0
KUM1 100554Z 22009KT 04/M00 A3008 RMK A01 T00371003  RH  075%=      5-min Rain = 0
KUM1 100555Z 22009KT 04/M00 A3008 RMK A01 T00371002  RH  076%=      5-min Rain = 0
KUM1 100556Z 22009KT 04/M00 A3008 RMK A01 T00371001  RH  076%=      5-min Rain = 0
KUM1 100557Z 22009KT 04/00 A3008 RMK A01 T003700-0  RH  076%=      5-min Rain = 0
KUM1 100558Z 22009KT 04/00 A3008 RMK A01 T00390001  RH  076%=      5-min Rain = 0
KUM1 100559Z 22009KT 04/00 A3008 RMK A01 T00400002  RH  076%=      5-min Rain = 0

Page generated in 0.0813 seconds.